Time,TemperatureF,DewpointF,PressureIn,WindDirection,WindDirectionDegrees,WindSpeedMPH,WindSpeedGustMPH,Humidity,HourlyPrecipIn,Conditions,Clouds,dailyrainin,SolarRadiationWatts/m^2,SoftwareType,DateUTC
2013-08-04 00:00:00,61.8,53.1,29.70,WNW,287,0.0,1.0,73,0.00,,CLR,0.00,0.00,VWS V14.01,2013-08-04 04:00:00,
2013-08-04 00:01:00,61.8,53.1,29.70,WNW,287,0.0,1.0,73,0.00,,CLR,0.00,0.00,VWS V14.01,2013-08-04 04:01:00,
2013-08-04 00:02:00,61.8,53.1,29.69,WNW,287,0.0,1.0,73,0.00,,CLR,0.00,0.00,VWS V14.01,2013-08-04 04:02:00,
2013-08-04 00:06:00,61.8,53.1,29.69,WNW,287,0.0,0.0,73,0.00,,CLR,0.00,0.00,VWS V14.01,2013-08-04 04:06:00,
2013-08-04 00:07:00,61.8,53.1,29.69,WNW,287,0.0,0.0,73,0.00,,CLR,0.00,0.00,VWS V14.01,2013-08-04 04:07:00,
2013-08-04 00:08:00,61.8,53.1,29.69,WNW,287,0.0,0.0,73,0.00,,CLR,0.00,0.00,VWS V14.01,2013-08-04 04:08:00,
2013-08-04 00:09:00,61.8,53.1,29.69,WNW,287,0.0,0.0,73,0.00,,CLR,0.00,0.00,VWS V14.01,2013-08-04 04:09:00,
2013-08-04 00:12:00,61.8,53.1,29.69,WNW,287,0.0,0.0,73,0.00,,CLR,0.00,0.00,VWS V14.01,2013-08-04 04:12:00,
2013-08-04 00:13:00,61.8,53.4,29.69,WNW,287,0.0,0.0,74,0.00,,CLR,0.00,0.00,VWS V14.01,2013-08-04 04:13:00,
2013-08-04 00:14:00,61.8,53.4,29.69,WNW,287,0.0,0.0,74,0.00,,CLR,0.00,0.00,VWS V14.01,2013-08-04 04:14:00,
2013-08-04 00:17:00,61.8,53.4,29.69,WNW,287,0.0,0.0,74,0.00,,CLR,0.00,0.00,VWS V14.01,2013-08-04 04:17:00,
2013-08-04 00:19:00,61.8,53.4,29.69,WNW,287,0.0,0.0,74,0.00,,CLR,0.00,0.00,VWS V14.01,2013-08-04 04:19:00,
2013-08-04 00:20:00,61.8,53.4,29.69,WNW,287,0.0,0.0,74,0.00,,CLR,0.00,0.00,VWS V14.01,2013-08-04 04:20:00,
2013-08-04 00:22:00,61.8,53.8,29.69,WNW,287,0.0,0.0,75,0.00,,CLR,0.00,0.00,VWS V14.01,2013-08-04 04:22:00,
2013-08-04 00:24:00,61.8,53.8,29.69,WNW,287,0.0,0.0,75,0.00,,CLR,0.00,0.00,VWS V14.01,2013-08-04 04:24:00,
2013-08-04 00:25:00,61.8,53.8,29.69,WNW,287,0.0,0.0,75,0.00,,CLR,0.00,0.00,VWS V14.01,2013-08-04 04:25:00,
2013-08-04 00:28:00,61.8,53.8,29.69,WNW,287,0.0,0.0,75,0.00,,CLR,0.00,0.00,VWS V14.01,2013-08-04 04:28:00,
2013-08-04 00:29:00,61.8,53.8,29.69,WNW,287,0.0,0.0,75,0.00,,CLR,0.00,0.00,VWS V14.01,2013-08-04 04:29:00,
2013-08-04 00:30:00,61.8,54.2,29.69,WNW,287,0.0,0.0,76,0.00,,CLR,0.00,0.00,VWS V14.01,2013-08-04 04:30:00,
2013-08-04 00:33:00,61.6,54.0,29.68,WNW,287,0.0,0.0,76,0.00,,CLR,0.00,0.00,VWS V14.01,2013-08-04 04:33:00,
2013-08-04 00:34:00,61.6,54.0,29.68,WNW,287,0.0,0.0,76,0.00,,CLR,0.00,0.00,VWS V14.01,2013-08-04 04:34:00,
2013-08-04 00:35:00,61.6,54.0,29.68,WNW,287,0.0,0.0,76,0.00,,CLR,0.00,0.00,VWS V14.01,2013-08-04 04:35:00,
2013-08-04 00:36:00,61.6,54.0,29.68,WNW,287,0.0,0.0,76,0.00,,CLR,0.00,0.00,VWS V14.01,2013-08-04 04:36:00,
2013-08-04 00:39:00,61.6,54.0,29.68,WNW,287,0.0,0.0,76,0.00,,CLR,0.00,0.00,VWS V14.01,2013-08-04 04:39:00,
2013-08-04 00:40:00,61.6,54.3,29.68,WNW,295,0.0,1.0,77,0.00,,CLR,0.00,0.00,VWS V14.01,2013-08-04 04:40:00,
2013-08-04 00:41:00,61.6,54.3,29.68,WNW,289,0.0,1.0,77,0.00,,CLR,0.00,0.00,VWS V14.01,2013-08-04 04:41:00,
2013-08-04 00:44:00,61.5,54.6,29.68,WNW,289,0.0,1.0,78,0.00,,CLR,0.00,0.00,VWS V14.01,2013-08-04 04:44:00,
2013-08-04 00:45:00,61.5,54.6,29.68,NNW,329,0.0,1.0,78,0.00,,CLR,0.00,0.00,VWS V14.01,2013-08-04 04:45:00,
2013-08-04 00:46:00,61.5,54.6,29.68,NW,326,0.0,1.0,78,0.00,,CLR,0.00,0.00,VWS V14.01,2013-08-04 04:46:00,
2013-08-04 00:49:00,61.5,54.6,29.68,West,274,0.0,5.0,78,0.00,,CLR,0.00,0.00,VWS V14.01,2013-08-04 04:49:00,
2013-08-04 00:50:00,61.5,54.6,29.68,West,263,0.0,5.0,78,0.00,,CLR,0.00,0.00,VWS V14.01,2013-08-04 04:50:00,
2013-08-04 00:51:00,61.5,54.6,29.68,West,274,0.0,5.0,78,0.00,,CLR,0.00,0.00,VWS V14.01,2013-08-04 04:51:00,
2013-08-04 00:55:00,61.5,54.9,29.68,West,265,0.0,6.0,79,0.00,,CLR,0.00,0.00,VWS V14.01,2013-08-04 04:55:00,
2013-08-04 00:56:00,61.3,54.7,29.68,West,274,0.0,6.0,79,0.00,,CLR,0.00,0.00,VWS V14.01,2013-08-04 04:56:00,
2013-08-04 00:57:00,61.3,54.7,29.68,West,274,0.0,6.0,79,0.00,,CLR,0.00,0.00,VWS V14.01,2013-08-04 04:57:00,
2013-08-04 00:59:00,61.3,54.7,29.68,West,274,0.0,6.0,79,0.00,,CLR,0.00,0.00,VWS V14.01,2013-08-04 04:59:00,
2013-08-04 01:00:00,61.3,54.7,29.68,West,272,0.0,6.0,79,0.00,,CLR,0.00,0.00,VWS V14.01,2013-08-04 05:00:00,
2013-08-04 01:01:00,61.3,54.7,29.68,West,272,0.0,6.0,79,0.00,,CLR,0.00,0.00,VWS V14.01,2013-08-04 05:01:00,
2013-08-04 01:02:00,61.3,54.7,29.68,West,271,0.0,0.0,79,0.00,,CLR,0.00,0.00,VWS V14.01,2013-08-04 05:02:00,
2013-08-04 01:03:00,61.3,54.7,29.68,West,271,0.0,0.0,79,0.00,,CLR,0.00,0.00,VWS V14.01,2013-08-04 05:03:00,
2013-08-04 01:05:00,61.3,54.7,29.68,West,272,0.0,0.0,79,0.00,,CLR,0.00,0.00,VWS V14.01,2013-08-04 05:05:00,
2013-08-04 01:06:00,61.3,54.7,29.68,West,272,0.0,0.0,79,0.00,,CLR,0.00,0.00,VWS V14.01,2013-08-04 05:06:00,
2013-08-04 01:07:00,61.3,54.7,29.68,West,274,0.0,0.0,79,0.00,,CLR,0.00,0.00,VWS V14.01,2013-08-04 05:07:00,
2013-08-04 01:08:00,61.3,54.7,29.68,West,277,0.0,0.0,79,0.00,,CLR,0.00,0.00,VWS V14.01,2013-08-04 05:08:00,
2013-08-04 01:10:00,61.5,55.3,29.68,West,277,0.0,0.0,80,0.00,,CLR,0.00,0.00,VWS V14.01,2013-08-04 05:10:00,
2013-08-04 01:11:00,61.5,55.3,29.68,NW,308,0.0,3.0,80,0.00,,CLR,0.00,0.00,VWS V14.01,2013-08-04 05:11:00,
2013-08-04 01:12:00,61.5,55.3,29.68,NW,308,0.0,3.0,80,0.00,,CLR,0.00,0.00,VWS V14.01,2013-08-04 05:12:00,
2013-08-04 01:13:00,61.5,55.3,29.68,NW,309,0.0,3.0,80,0.00,,CLR,0.00,0.00,VWS V14.01,2013-08-04 05:13:00,
2013-08-04 01:15:00,61.5,55.3,29.68,NW,309,0.0,3.0,80,0.00,,CLR,0.00,0.00,VWS V14.01,2013-08-04 05:15:00,
2013-08-04 01:17:00,61.5,55.3,29.68,WNW,295,0.0,3.0,80,0.00,,CLR,0.00,0.00,VWS V14.01,2013-08-04 05:17:00,
2013-08-04 01:18:00,61.5,55.3,29.68,WNW,295,0.0,3.0,80,0.00,,CLR,0.00,0.00,VWS V14.01,2013-08-04 05:18:00,
2013-08-04 01:20:00,61.5,55.3,29.68,WNW,294,0.0,3.0,80,0.00,,CLR,0.00,0.00,VWS V14.01,2013-08-04 05:20:00,
2013-08-04 01:22:00,61.5,55.3,29.68,WSW,250,0.0,3.0,80,0.00,,CLR,0.00,0.00,VWS V14.01,2013-08-04 05:22:00,
2013-08-04 01:23:00,61.5,55.3,29.68,WSW,250,0.0,3.0,80,0.00,,CLR,0.00,0.00,VWS V14.01,2013-08-04 05:23:00,
2013-08-04 01:24:00,61.5,55.3,29.68,WSW,250,0.0,3.0,80,0.00,,CLR,0.00,0.00,VWS V14.01,2013-08-04 05:24:00,
2013-08-04 01:26:00,61.5,55.3,29.68,WSW,251,0.0,3.0,80,0.00,,CLR,0.00,0.00,VWS V14.01,2013-08-04 05:26:00,
2013-08-04 01:28:00,61.5,55.3,29.68,WSW,256,0.0,3.0,80,0.00,,CLR,0.00,0.00,VWS V14.01,2013-08-04 05:28:00,
2013-08-04 01:29:00,61.5,55.3,29.68,West,280,0.0,3.0,80,0.00,,CLR,0.00,0.00,VWS V14.01,2013-08-04 05:29:00,
2013-08-04 01:30:00,61.5,55.3,29.68,West,281,0.0,3.0,80,0.00,,CLR,0.00,0.00,VWS V14.01,2013-08-04 05:30:00,
2013-08-04 01:32:00,61.5,54.9,29.67,West,281,0.0,0.0,79,0.00,,CLR,0.00,0.00,VWS V14.01,2013-08-04 05:32:00,
2013-08-04 01:33:00,61.5,54.9,29.67,West,281,0.0,0.0,79,0.00,,CLR,0.00,0.00,VWS V14.01,2013-08-04 05:33:00,
2013-08-04 01:34:00,61.5,54.9,29.67,West,281,0.0,0.0,79,0.00,,CLR,0.00,0.00,VWS V14.01,2013-08-04 05:34:00,
2013-08-04 01:35:00,61.5,54.9,29.67,West,278,0.0,6.0,79,0.00,,CLR,0.00,0.00,VWS V14.01,2013-08-04 05:35:00,
2013-08-04 01:37:00,61.5,54.9,29.67,West,280,0.0,6.0,79,0.00,,CLR,0.00,0.00,VWS V14.01,2013-08-04 05:37:00,
2013-08-04 01:38:00,61.5,54.9,29.67,West,280,0.0,6.0,79,0.00,,CLR,0.00,0.00,VWS V14.01,2013-08-04 05:38:00,
2013-08-04 01:39:00,61.5,54.9,29.67,West,280,0.0,6.0,79,0.00,,CLR,0.00,0.00,VWS V14.01,2013-08-04 05:39:00,
2013-08-04 01:40:00,61.5,54.9,29.67,West,272,0.0,6.0,79,0.00,,CLR,0.00,0.00,VWS V14.01,2013-08-04 05:40:00,
2013-08-04 01:41:00,61.5,54.9,29.67,West,272,0.0,6.0,79,0.00,,CLR,0.00,0.00,VWS V14.01,2013-08-04 05:41:00,
2013-08-04 01:42:00,61.3,54.7,29.67,WSW,254,0.0,6.0,79,0.00,,CLR,0.00,0.00,VWS V14.01,2013-08-04 05:42:00,
2013-08-04 01:43:00,61.3,54.7,29.67,West,271,2.0,6.0,79,0.00,,CLR,0.00,0.00,VWS V14.01,2013-08-04 05:43:00,
2013-08-04 01:44:00,61.3,54.7,29.67,West,271,0.0,6.0,79,0.00,,CLR,0.00,0.00,VWS V14.01,2013-08-04 05:44:00,
2013-08-04 01:46:00,61.3,54.7,29.67,West,267,0.0,6.0,79,0.00,,CLR,0.00,0.00,VWS V14.01,2013-08-04 05:46:00,
2013-08-04 01:48:00,61.3,55.1,29.67,West,277,0.0,6.0,80,0.00,,CLR,0.00,0.00,VWS V14.01,2013-08-04 05:48:00,
2013-08-04 01:50:00,61.3,54.7,29.67,West,274,0.0,6.0,79,0.00,,CLR,0.00,0.00,VWS V14.01,2013-08-04 05:50:00,
2013-08-04 01:51:00,61.3,54.7,29.67,WNW,292,0.0,6.0,79,0.00,,CLR,0.00,0.00,VWS V14.01,2013-08-04 05:51:00,
2013-08-04 01:52:00,61.3,54.7,29.67,WNW,288,0.0,6.0,79,0.00,,CLR,0.00,0.00,VWS V14.01,2013-08-04 05:52:00,
2013-08-04 01:53:00,61.3,54.7,29.67,WNW,288,0.0,6.0,79,0.00,,CLR,0.00,0.00,VWS V14.01,2013-08-04 05:53:00,
2013-08-04 01:55:00,61.2,54.6,29.67,NW,326,0.0,6.0,79,0.00,,CLR,0.00,0.00,VWS V14.01,2013-08-04 05:55:00,
2013-08-04 01:56:00,61.2,54.6,29.67,West,271,0.0,6.0,79,0.00,,CLR,0.00,0.00,VWS V14.01,2013-08-04 05:56:00,
2013-08-04 01:58:00,61.2,54.3,29.67,West,264,0.0,6.0,78,0.00,,CLR,0.00,0.00,VWS V14.01,2013-08-04 05:58:00,
2013-08-04 01:59:00,61.2,54.3,29.67,West,264,0.0,6.0,78,0.00,,CLR,0.00,0.00,VWS V14.01,2013-08-04 05:59:00,
2013-08-04 02:00:00,61.2,54.3,29.67,West,264,0.0,6.0,78,0.00,,FEW110,0.00,0.00,VWS V14.01,2013-08-04 06:00:00,
2013-08-04 02:01:00,61.2,54.3,29.67,West,264,0.0,6.0,78,0.00,,FEW110,0.00,0.00,VWS V14.01,2013-08-04 06:01:00,
2013-08-04 02:02:00,61.2,54.6,29.67,West,265,0.0,0.0,79,0.00,,FEW110,0.00,0.00,VWS V14.01,2013-08-04 06:02:00,
2013-08-04 02:03:00,61.2,54.6,29.67,West,265,0.0,0.0,79,0.00,,FEW110,0.00,0.00,VWS V14.01,2013-08-04 06:03:00,
2013-08-04 02:05:00,61.2,54.3,29.67,West,265,0.0,0.0,78,0.00,,FEW110,0.00,0.00,VWS V14.01,2013-08-04 06:05:00,
2013-08-04 02:06:00,61.2,54.3,29.67,NNW,333,0.0,1.0,78,0.00,,FEW110,0.00,0.00,VWS V14.01,2013-08-04 06:06:00,
2013-08-04 02:07:00,61.2,54.3,29.67,NNW,333,0.0,1.0,78,0.00,,FEW110,0.00,0.00,VWS V14.01,2013-08-04 06:07:00,
2013-08-04 02:08:00,61.0,54.1,29.67,NNW,332,0.0,1.0,78,0.00,,FEW110,0.00,0.00,VWS V14.01,2013-08-04 06:08:00,
2013-08-04 02:10:00,61.0,54.1,29.67,NNW,332,0.0,1.0,78,0.00,,FEW110,0.00,0.00,VWS V14.01,2013-08-04 06:10:00,
2013-08-04 02:11:00,61.0,54.5,29.67,NNW,332,0.0,1.0,79,0.00,,FEW110,0.00,0.00,VWS V14.01,2013-08-04 06:11:00,
2013-08-04 02:12:00,61.0,54.5,29.67,NNW,332,0.0,1.0,79,0.00,,FEW110,0.00,0.00,VWS V14.01,2013-08-04 06:12:00,
2013-08-04 02:13:00,61.0,54.5,29.67,NNW,332,0.0,1.0,79,0.00,,FEW110,0.00,0.00,VWS V14.01,2013-08-04 06:13:00,
2013-08-04 02:15:00,61.0,54.5,29.67,NNW,332,0.0,1.0,79,0.00,,FEW110,0.00,0.00,VWS V14.01,2013-08-04 06:15:00,
2013-08-04 02:16:00,61.0,54.5,29.66,NNW,332,0.0,1.0,79,0.00,,FEW110,0.00,0.00,VWS V14.01,2013-08-04 06:16:00,
2013-08-04 02:17:00,61.0,54.5,29.66,NNW,332,0.0,1.0,79,0.00,,FEW110,0.00,0.00,VWS V14.01,2013-08-04 06:17:00,
2013-08-04 02:18:00,61.0,54.5,29.66,NNW,332,0.0,1.0,79,0.00,,FEW110,0.00,0.00,VWS V14.01,2013-08-04 06:18:00,
2013-08-04 02:19:00,61.0,54.5,29.66,NNW,333,0.0,1.0,79,0.00,,FEW110,0.00,0.00,VWS V14.01,2013-08-04 06:19:00,
2013-08-04 02:20:00,60.9,54.3,29.66,NW,322,0.0,1.0,79,0.00,,FEW110,0.00,0.00,VWS V14.01,2013-08-04 06:20:00,
2013-08-04 02:21:00,60.9,54.3,29.66,NW,320,0.0,1.0,79,0.00,,FEW110,0.00,0.00,VWS V14.01,2013-08-04 06:21:00,
2013-08-04 02:22:00,60.9,54.3,29.66,NW,320,0.0,1.0,79,0.00,,FEW110,0.00,0.00,VWS V14.01,2013-08-04 06:22:00,
2013-08-04 02:24:00,60.9,54.3,29.66,NW,320,0.0,1.0,79,0.00,,FEW110,0.00,0.00,VWS V14.01,2013-08-04 06:24:00,
2013-08-04 02:25:00,60.9,54.3,29.66,NW,320,0.0,1.0,79,0.00,,FEW110,0.00,0.00,VWS V14.01,2013-08-04 06:25:00,
2013-08-04 02:26:00,60.9,54.3,29.66,NW,320,0.0,1.0,79,0.00,,FEW110,0.00,0.00,VWS V14.01,2013-08-04 06:26:00,
2013-08-04 02:27:00,60.9,54.3,29.66,NW,320,0.0,1.0,79,0.00,,FEW110,0.00,0.00,VWS V14.01,2013-08-04 06:27:00,
2013-08-04 02:29:00,60.9,54.3,29.66,NW,320,0.0,1.0,79,0.00,,FEW110,0.00,0.00,VWS V14.01,2013-08-04 06:29:00,
2013-08-04 02:30:00,60.9,54.3,29.66,West,277,1.0,1.0,79,0.00,,FEW110,0.00,0.00,VWS V14.01,2013-08-04 06:30:00,
2013-08-04 02:31:00,60.9,54.3,29.66,West,277,0.0,1.0,79,0.00,,FEW110,0.00,0.00,VWS V14.01,2013-08-04 06:31:00,
2013-08-04 02:32:00,60.7,54.2,29.66,West,277,0.0,0.0,79,0.00,,FEW110,0.00,0.00,VWS V14.01,2013-08-04 06:32:00,
2013-08-04 02:34:00,60.7,54.2,29.66,West,277,0.0,0.0,79,0.00,,FEW110,0.00,0.00,VWS V14.01,2013-08-04 06:34:00,
2013-08-04 02:35:00,60.7,54.2,29.66,West,277,0.0,0.0,79,0.00,,FEW110,0.00,0.00,VWS V14.01,2013-08-04 06:35:00,
2013-08-04 02:37:00,60.7,54.2,29.66,West,277,0.0,0.0,79,0.00,,FEW110,0.00,0.00,VWS V14.01,2013-08-04 06:37:00,
2013-08-04 02:38:00,60.7,54.2,29.66,West,277,0.0,0.0,79,0.00,,FEW110,0.00,0.00,VWS V14.01,2013-08-04 06:38:00,
2013-08-04 02:41:00,60.7,54.5,29.66,WNW,282,0.0,0.0,80,0.00,,FEW110,0.00,0.00,VWS V14.01,2013-08-04 06:41:00,
2013-08-04 02:42:00,60.5,54.3,29.66,WNW,282,0.0,0.0,80,0.00,,FEW110,0.00,0.00,VWS V14.01,2013-08-04 06:42:00,
2013-08-04 02:43:00,60.5,54.3,29.66,WNW,282,0.0,0.0,80,0.00,,FEW110,0.00,0.00,VWS V14.01,2013-08-04 06:43:00,
2013-08-04 02:46:00,60.5,54.3,29.66,WNW,282,0.0,0.0,80,0.00,,FEW110,0.00,0.00,VWS V14.01,2013-08-04 06:46:00,
2013-08-04 02:47:00,60.5,54.7,29.66,WNW,282,0.0,1.0,81,0.00,,FEW110,0.00,0.00,VWS V14.01,2013-08-04 06:47:00,
2013-08-04 02:48:00,60.5,54.7,29.66,WNW,282,0.0,1.0,81,0.00,,FEW110,0.00,0.00,VWS V14.01,2013-08-04 06:48:00,
2013-08-04 02:52:00,60.4,54.5,29.66,WNW,287,0.0,1.0,81,0.00,,FEW110,0.00,0.00,VWS V14.01,2013-08-04 06:52:00,
2013-08-04 02:53:00,60.4,54.5,29.66,WNW,287,0.0,1.0,81,0.00,,FEW110,0.00,0.00,VWS V14.01,2013-08-04 06:53:00,
2013-08-04 02:54:00,60.4,54.5,29.66,WNW,287,0.0,1.0,81,0.00,,FEW110,0.00,0.00,VWS V14.01,2013-08-04 06:54:00,
2013-08-04 02:57:00,60.4,54.9,29.66,West,271,0.0,1.0,82,0.00,,FEW110,0.00,0.00,VWS V14.01,2013-08-04 06:57:00,
2013-08-04 02:58:00,60.4,54.9,29.66,West,268,0.0,1.0,82,0.00,,FEW110,0.00,0.00,VWS V14.01,2013-08-04 06:58:00,
2013-08-04 02:59:00,60.4,54.9,29.66,West,274,0.0,1.0,82,0.00,,FEW110,0.00,0.00,VWS V14.01,2013-08-04 06:59:00,
2013-08-04 03:00:00,60.2,54.7,29.66,West,274,0.0,1.0,82,0.00,,OVC050,0.00,0.00,VWS V14.01,2013-08-04 07:00:00,
2013-08-04 03:02:00,60.2,54.7,29.66,West,274,0.0,0.0,82,0.00,,CLR,0.00,0.00,VWS V14.01,2013-08-04 07:02:00,
2013-08-04 03:03:00,60.2,54.7,29.66,West,274,0.0,0.0,82,0.00,,CLR,0.00,0.00,VWS V14.01,2013-08-04 07:03:00,
2013-08-04 03:04:00,60.2,54.7,29.66,West,274,0.0,0.0,82,0.00,,CLR,0.00,0.00,VWS V14.01,2013-08-04 07:04:00,
2013-08-04 03:07:00,60.1,54.6,29.66,West,274,0.0,0.0,82,0.00,,CLR,0.00,0.00,VWS V14.01,2013-08-04 07:07:00,
2013-08-04 03:08:00,60.1,54.6,29.66,WNW,294,0.0,0.0,82,0.00,,CLR,0.00,0.00,VWS V14.01,2013-08-04 07:08:00,
2013-08-04 03:09:00,60.1,54.6,29.66,WNW,294,0.0,0.0,82,0.00,,CLR,0.00,0.00,VWS V14.01,2013-08-04 07:09:00,
2013-08-04 03:10:00,60.1,54.6,29.66,WNW,294,0.0,0.0,82,0.00,,CLR,0.00,0.00,VWS V14.01,2013-08-04 07:10:00,
2013-08-04 03:13:00,60.1,54.6,29.66,WNW,294,0.0,0.0,82,0.00,,CLR,0.00,0.00,VWS V14.01,2013-08-04 07:13:00,
2013-08-04 03:14:00,60.1,54.6,29.66,North,356,0.0,0.0,82,0.00,,CLR,0.00,0.00,VWS V14.01,2013-08-04 07:14:00,
2013-08-04 03:15:00,60.1,54.6,29.66,North,356,0.0,0.0,82,0.00,,CLR,0.00,0.00,VWS V14.01,2013-08-04 07:15:00,
2013-08-04 03:18:00,59.9,54.4,29.66,NNW,347,0.0,0.0,82,0.00,,CLR,0.00,0.00,VWS V14.01,2013-08-04 07:18:00,
2013-08-04 03:19:00,59.9,54.4,29.66,NNW,347,0.0,0.0,82,0.00,,CLR,0.00,0.00,VWS V14.01,2013-08-04 07:19:00,
2013-08-04 03:20:00,59.9,54.4,29.66,NNW,347,0.0,0.0,82,0.00,,CLR,0.00,0.00,VWS V14.01,2013-08-04 07:20:00,
2013-08-04 03:23:00,59.9,54.4,29.66,NNW,347,0.0,0.0,82,0.00,,CLR,0.00,0.00,VWS V14.01,2013-08-04 07:23:00,
2013-08-04 03:24:00,59.9,54.4,29.66,NNW,347,0.0,0.0,82,0.00,,CLR,0.00,0.00,VWS V14.01,2013-08-04 07:24:00,
2013-08-04 03:25:00,59.9,54.4,29.66,NNW,347,0.0,0.0,82,0.00,,CLR,0.00,0.00,VWS V14.01,2013-08-04 07:25:00,
2013-08-04 03:26:00,59.9,54.4,29.66,NNW,347,0.0,0.0,82,0.00,,CLR,0.00,0.00,VWS V14.01,2013-08-04 07:26:00,
2013-08-04 03:29:00,59.8,54.3,29.66,NW,305,0.0,0.0,82,0.00,,CLR,0.00,0.00,VWS V14.01,2013-08-04 07:29:00,
2013-08-04 03:30:00,59.8,54.6,29.66,NW,305,0.0,0.0,83,0.00,,OVC050,0.00,0.00,VWS V14.01,2013-08-04 07:30:00,
2013-08-04 03:31:00,59.8,54.6,29.66,NW,305,0.0,0.0,83,0.00,,CLR,0.00,0.00,VWS V14.01,2013-08-04 07:31:00,
2013-08-04 03:32:00,59.8,54.6,29.66,NW,305,0.0,0.0,83,0.00,,CLR,0.00,0.00,VWS V14.01,2013-08-04 07:32:00,
2013-08-04 03:34:00,59.6,54.4,29.66,NW,305,0.0,0.0,83,0.00,,CLR,0.00,0.00,VWS V14.01,2013-08-04 07:34:00,
2013-08-04 03:36:00,59.6,54.4,29.66,WNW,301,0.0,0.0,83,0.00,,CLR,0.00,0.00,VWS V14.01,2013-08-04 07:36:00,
2013-08-04 03:37:00,59.6,54.4,29.66,NW,305,0.0,0.0,83,0.00,,CLR,0.00,0.00,VWS V14.01,2013-08-04 07:37:00,
2013-08-04 03:40:00,59.5,54.7,29.66,West,268,0.0,3.0,84,0.00,,CLR,0.00,0.00,VWS V14.01,2013-08-04 07:40:00,
2013-08-04 03:41:00,59.5,54.7,29.66,West,268,0.0,3.0,84,0.00,,CLR,0.00,0.00,VWS V14.01,2013-08-04 07:41:00,
2013-08-04 03:42:00,59.5,54.7,29.66,West,268,0.0,3.0,84,0.00,,CLR,0.00,0.00,VWS V14.01,2013-08-04 07:42:00,
2013-08-04 03:43:00,59.5,54.7,29.66,West,268,0.0,3.0,84,0.00,,CLR,0.00,0.00,VWS V14.01,2013-08-04 07:43:00,
2013-08-04 03:45:00,59.3,54.5,29.66,West,268,0.0,3.0,84,0.00,,CLR,0.00,0.00,VWS V14.01,2013-08-04 07:45:00,
2013-08-04 03:46:00,59.3,54.5,29.66,West,268,0.0,3.0,84,0.00,,CLR,0.00,0.00,VWS V14.01,2013-08-04 07:46:00,
2013-08-04 03:47:00,59.3,54.5,29.66,West,267,0.0,3.0,84,0.00,,CLR,0.00,0.00,VWS V14.01,2013-08-04 07:47:00,
2013-08-04 03:48:00,59.3,54.5,29.66,West,268,0.0,3.0,84,0.00,,CLR,0.00,0.00,VWS V14.01,2013-08-04 07:48:00,
2013-08-04 03:51:00,59.2,54.7,29.66,West,261,0.0,3.0,85,0.00,,CLR,0.00,0.00,VWS V14.01,2013-08-04 07:51:00,
2013-08-04 03:52:00,59.2,54.7,29.66,West,261,0.0,3.0,85,0.00,,CLR,0.00,0.00,VWS V14.01,2013-08-04 07:52:00,
2013-08-04 03:53:00,59.2,54.7,29.66,West,261,0.0,3.0,85,0.00,,CLR,0.00,0.00,VWS V14.01,2013-08-04 07:53:00,
2013-08-04 03:57:00,59.2,54.7,29.66,NNW,343,0.0,3.0,85,0.00,,CLR,0.00,0.00,VWS V14.01,2013-08-04 07:57:00,
2013-08-04 03:58:00,59.2,54.7,29.66,NNW,343,0.0,3.0,85,0.00,,CLR,0.00,0.00,VWS V14.01,2013-08-04 07:58:00,
2013-08-04 03:59:00,59.2,54.7,29.66,WNW,287,0.0,6.0,85,0.00,,CLR,0.00,0.00,VWS V14.01,2013-08-04 07:59:00,
2013-08-04 04:00:00,59.2,54.7,29.66,WNW,288,0.0,6.0,85,0.00,,OVC050,0.00,0.00,VWS V14.01,2013-08-04 08:00:00,
2013-08-04 04:02:00,59.0,54.5,29.66,WNW,288,0.0,0.0,85,0.00,,CLR,0.00,0.00,VWS V14.01,2013-08-04 08:02:00,
2013-08-04 04:03:00,59.0,54.5,29.66,WNW,288,0.0,0.0,85,0.00,,CLR,0.00,0.00,VWS V14.01,2013-08-04 08:03:00,
2013-08-04 04:04:00,59.0,54.5,29.66,West,280,0.0,0.0,85,0.00,,CLR,0.00,0.00,VWS V14.01,2013-08-04 08:04:00,
2013-08-04 04:08:00,59.0,54.5,29.66,West,271,0.0,3.0,85,0.00,,CLR,0.00,0.00,VWS V14.01,2013-08-04 08:08:00,
2013-08-04 04:09:00,59.0,54.5,29.66,West,271,0.0,3.0,85,0.00,,CLR,0.00,0.00,VWS V14.01,2013-08-04 08:09:00,
2013-08-04 04:10:00,59.0,54.5,29.66,West,271,0.0,3.0,85,0.00,,CLR,0.00,0.00,VWS V14.01,2013-08-04 08:10:00,
2013-08-04 04:13:00,59.0,54.5,29.66,West,274,0.0,3.0,85,0.00,,CLR,0.00,0.00,VWS V14.01,2013-08-04 08:13:00,
2013-08-04 04:14:00,59.0,54.5,29.66,West,274,0.0,3.0,85,0.00,,CLR,0.00,0.00,VWS V14.01,2013-08-04 08:14:00,
2013-08-04 04:15:00,59.0,54.5,29.66,West,274,0.0,3.0,85,0.00,,CLR,0.00,0.00,VWS V14.01,2013-08-04 08:15:00,
2013-08-04 04:19:00,59.0,54.5,29.67,West,274,0.0,3.0,85,0.00,,CLR,0.00,0.00,VWS V14.01,2013-08-04 08:19:00,
2013-08-04 04:20:00,59.0,54.2,29.67,West,274,0.0,3.0,84,0.00,,CLR,0.00,0.00,VWS V14.01,2013-08-04 08:20:00,
2013-08-04 04:22:00,59.0,54.2,29.67,West,275,0.0,3.0,84,0.00,,CLR,0.00,0.00,VWS V14.01,2013-08-04 08:22:00,
2013-08-04 04:25:00,59.0,54.2,29.67,West,275,0.0,3.0,84,0.00,,CLR,0.00,0.00,VWS V14.01,2013-08-04 08:25:00,
2013-08-04 04:26:00,59.0,54.2,29.67,West,271,0.0,3.0,84,0.00,,CLR,0.00,0.00,VWS V14.01,2013-08-04 08:26:00,
2013-08-04 04:27:00,59.0,54.2,29.67,West,275,0.0,3.0,84,0.00,,CLR,0.00,0.00,VWS V14.01,2013-08-04 08:27:00,
2013-08-04 04:30:00,59.0,54.5,29.67,West,275,0.0,3.0,85,0.00,,CLR,0.00,0.00,VWS V14.01,2013-08-04 08:30:00,
2013-08-04 04:32:00,59.0,54.2,29.67,West,275,0.0,0.0,84,0.00,,CLR,0.00,0.00,VWS V14.01,2013-08-04 08:32:00,
2013-08-04 04:35:00,58.9,54.1,29.67,West,275,0.0,0.0,84,0.00,,CLR,0.00,0.00,VWS V14.01,2013-08-04 08:35:00,
2013-08-04 04:36:00,58.9,54.4,29.67,West,275,0.0,0.0,85,0.00,,CLR,0.00,0.00,VWS V14.01,2013-08-04 08:36:00,
2013-08-04 04:37:00,58.9,54.4,29.67,West,275,0.0,0.0,85,0.00,,CLR,0.00,0.00,VWS V14.01,2013-08-04 08:37:00,
2013-08-04 04:38:00,58.9,54.4,29.67,West,275,0.0,0.0,85,0.00,,CLR,0.00,0.00,VWS V14.01,2013-08-04 08:38:00,
2013-08-04 04:41:00,58.9,54.4,29.67,West,277,0.0,0.0,85,0.00,,CLR,0.00,0.00,VWS V14.01,2013-08-04 08:41:00,
2013-08-04 04:43:00,58.7,54.2,29.67,SW,230,0.0,1.0,85,0.00,,CLR,0.00,0.00,VWS V14.01,2013-08-04 08:43:00,
2013-08-04 04:46:00,58.7,54.2,29.67,SW,230,0.0,1.0,85,0.00,,CLR,0.00,0.00,VWS V14.01,2013-08-04 08:46:00,
2013-08-04 04:47:00,58.7,54.2,29.67,SW,230,0.0,1.0,85,0.00,,CLR,0.00,0.00,VWS V14.01,2013-08-04 08:47:00,
2013-08-04 04:48:00,58.7,54.2,29.67,SW,230,0.0,1.0,85,0.00,,CLR,0.00,0.00,VWS V14.01,2013-08-04 08:48:00,
2013-08-04 04:52:00,58.6,54.1,29.67,SW,230,0.0,1.0,85,0.00,,CLR,0.00,0.00,VWS V14.01,2013-08-04 08:52:00,
2013-08-04 04:53:00,58.6,54.1,29.67,SW,230,0.0,1.0,85,0.00,,CLR,0.00,0.00,VWS V14.01,2013-08-04 08:53:00,
2013-08-04 04:54:00,58.6,54.1,29.67,SW,230,0.0,1.0,85,0.00,,CLR,0.00,0.00,VWS V14.01,2013-08-04 08:54:00,
2013-08-04 04:57:00,58.4,53.9,29.67,SW,230,0.0,1.0,85,0.00,,CLR,0.00,0.00,VWS V14.01,2013-08-04 08:57:00,
2013-08-04 04:58:00,58.4,53.9,29.67,SW,230,0.0,1.0,85,0.00,,CLR,0.00,0.00,VWS V14.01,2013-08-04 08:58:00,
2013-08-04 04:59:00,58.4,53.9,29.67,SW,230,0.0,1.0,85,0.00,,CLR,0.00,0.00,VWS V14.01,2013-08-04 08:59:00,
2013-08-04 05:00:00,58.3,53.8,29.68,SW,236,0.0,1.0,85,0.00,,OVC050,0.00,0.00,VWS V14.01,2013-08-04 09:00:00,
2013-08-04 05:02:00,58.3,54.1,29.68,SW,236,0.0,0.0,86,0.00,,CLR,0.00,0.00,VWS V14.01,2013-08-04 09:02:00,
2013-08-04 05:03:00,58.3,54.1,29.68,SW,236,0.0,0.0,86,0.00,,CLR,0.00,0.00,VWS V14.01,2013-08-04 09:03:00,
2013-08-04 05:04:00,58.3,54.1,29.68,SW,236,0.0,0.0,86,0.00,,CLR,0.00,0.00,VWS V14.01,2013-08-04 09:04:00,
2013-08-04 05:05:00,58.3,54.1,29.68,SW,236,0.0,0.0,86,0.00,,CLR,0.00,0.00,VWS V14.01,2013-08-04 09:05:00,
2013-08-04 05:08:00,58.3,54.1,29.68,SW,236,0.0,0.0,86,0.00,,CLR,0.00,0.00,VWS V14.01,2013-08-04 09:08:00,
2013-08-04 05:09:00,58.3,54.1,29.68,SW,236,0.0,0.0,86,0.00,,CLR,0.00,0.00,VWS V14.01,2013-08-04 09:09:00,
2013-08-04 05:10:00,58.3,54.1,29.68,SW,236,0.0,0.0,86,0.00,,CLR,0.00,0.00,VWS V14.01,2013-08-04 09:10:00,
2013-08-04 05:13:00,58.1,53.9,29.68,SW,236,0.0,0.0,86,0.00,,CLR,0.00,0.00,VWS V14.01,2013-08-04 09:13:00,
2013-08-04 05:14:00,58.1,53.9,29.68,SW,236,0.0,0.0,86,0.00,,CLR,0.00,0.00,VWS V14.01,2013-08-04 09:14:00,
2013-08-04 05:15:00,58.1,53.9,29.68,SW,236,0.0,0.0,86,0.00,,CLR,0.00,0.00,VWS V14.01,2013-08-04 09:15:00,
2013-08-04 05:18:00,58.1,53.9,29.68,SW,236,0.0,1.0,86,0.00,,CLR,0.00,0.00,VWS V14.01,2013-08-04 09:18:00,
2013-08-04 05:20:00,58.1,53.9,29.68,SW,236,0.0,1.0,86,0.00,,CLR,0.00,0.00,VWS V14.01,2013-08-04 09:20:00,
2013-08-04 05:21:00,58.1,53.9,29.68,SW,236,0.0,1.0,86,0.00,,CLR,0.00,0.00,VWS V14.01,2013-08-04 09:21:00,
2013-08-04 05:24:00,58.1,54.3,29.68,SW,236,0.0,1.0,87,0.00,,CLR,0.00,0.00,VWS V14.01,2013-08-04 09:24:00,
2013-08-04 05:25:00,58.1,54.3,29.68,SW,236,0.0,1.0,87,0.00,,CLR,0.00,0.00,VWS V14.01,2013-08-04 09:25:00,
2013-08-04 05:26:00,58.1,54.3,29.68,SW,236,0.0,1.0,87,0.00,,CLR,0.00,0.00,VWS V14.01,2013-08-04 09:26:00,
2013-08-04 05:27:00,58.1,54.3,29.68,SW,236,0.0,1.0,87,0.00,,CLR,0.00,0.00,VWS V14.01,2013-08-04 09:27:00,
2013-08-04 05:29:00,58.1,54.3,29.68,SW,236,0.0,1.0,87,0.00,,CLR,0.00,0.00,VWS V14.01,2013-08-04 09:29:00,
2013-08-04 05:30:00,58.1,54.3,29.68,SW,236,0.0,1.0,87,0.00,,CLR,0.00,0.00,VWS V14.01,2013-08-04 09:30:00,
2013-08-04 05:31:00,58.1,54.3,29.68,SW,236,0.0,1.0,87,0.00,,CLR,0.00,0.00,VWS V14.01,2013-08-04 09:31:00,
2013-08-04 05:32:00,58.1,54.3,29.68,SW,230,0.0,0.0,87,0.00,,CLR,0.00,0.00,VWS V14.01,2013-08-04 09:32:00,
2013-08-04 05:34:00,58.1,54.3,29.68,SW,236,0.0,0.0,87,0.00,,CLR,0.00,0.00,VWS V14.01,2013-08-04 09:34:00,
2013-08-04 05:35:00,58.1,54.3,29.68,SW,236,0.0,0.0,87,0.00,,CLR,0.00,0.00,VWS V14.01,2013-08-04 09:35:00,
2013-08-04 05:36:00,58.1,54.3,29.68,SW,236,0.0,0.0,87,0.00,,CLR,0.00,0.00,VWS V14.01,2013-08-04 09:36:00,
2013-08-04 05:37:00,58.0,54.2,29.68,SW,236,0.0,0.0,87,0.00,,CLR,0.00,0.00,VWS V14.01,2013-08-04 09:37:00,
2013-08-04 05:39:00,58.0,54.2,29.68,SW,236,0.0,0.0,87,0.00,,CLR,0.00,0.00,VWS V14.01,2013-08-04 09:39:00,
2013-08-04 05:40:00,58.0,54.2,29.68,SW,229,0.0,0.0,87,0.00,,CLR,0.00,0.00,VWS V14.01,2013-08-04 09:40:00,
2013-08-04 05:41:00,58.0,54.2,29.68,SW,236,0.0,0.0,87,0.00,,CLR,0.00,0.00,VWS V14.01,2013-08-04 09:41:00,
2013-08-04 05:42:00,58.0,54.5,29.68,SW,236,0.0,0.0,88,0.00,,CLR,0.00,0.00,VWS V14.01,2013-08-04 09:42:00,
2013-08-04 05:43:00,58.0,54.5,29.68,SW,236,0.0,0.0,88,0.00,,CLR,0.00,0.00,VWS V14.01,2013-08-04 09:43:00,
2013-08-04 05:45:00,58.0,54.5,29.68,SW,236,0.0,0.0,88,0.00,,CLR,0.00,5.00,VWS V14.01,2013-08-04 09:45:00,
2013-08-04 05:46:00,58.0,54.5,29.69,SW,236,0.0,0.0,88,0.00,,CLR,0.00,5.00,VWS V14.01,2013-08-04 09:46:00,
2013-08-04 05:47:00,58.0,54.5,29.69,SW,236,0.0,0.0,88,0.00,,CLR,0.00,5.00,VWS V14.01,2013-08-04 09:47:00,
2013-08-04 05:48:00,58.0,54.5,29.69,SW,236,0.0,0.0,88,0.00,,CLR,0.00,5.00,VWS V14.01,2013-08-04 09:48:00,
2013-08-04 05:50:00,58.0,54.5,29.69,SW,236,0.0,0.0,88,0.00,,CLR,0.00,5.00,VWS V14.01,2013-08-04 09:50:00,
2013-08-04 05:51:00,58.0,54.5,29.69,SW,236,0.0,0.0,88,0.00,,CLR,0.00,5.00,VWS V14.01,2013-08-04 09:51:00,
2013-08-04 05:52:00,58.0,54.5,29.69,SW,236,0.0,0.0,88,0.00,,CLR,0.00,5.00,VWS V14.01,2013-08-04 09:52:00,
2013-08-04 05:53:00,58.0,54.5,29.69,SW,236,0.0,0.0,88,0.00,,CLR,0.00,5.00,VWS V14.01,2013-08-04 09:53:00,
2013-08-04 05:55:00,58.0,54.5,29.69,SW,236,0.0,0.0,88,0.00,,CLR,0.00,7.00,VWS V14.01,2013-08-04 09:55:00,
2013-08-04 05:58:00,57.8,54.3,29.69,SW,236,0.0,0.0,88,0.00,,CLR,0.00,11.00,VWS V14.01,2013-08-04 09:58:00,
2013-08-04 06:00:00,57.8,54.3,29.69,SW,236,0.0,0.0,88,0.00,,OVC050,0.00,12.00,VWS V14.01,2013-08-04 10:00:00,
2013-08-04 06:01:00,57.8,54.3,29.69,SW,236,0.0,0.0,88,0.00,,CLR,0.00,11.00,VWS V14.01,2013-08-04 10:01:00,
2013-08-04 06:03:00,57.8,54.3,29.69,SW,236,0.0,0.0,88,0.00,,CLR,0.00,12.00,VWS V14.01,2013-08-04 10:03:00,
2013-08-04 06:06:00,57.8,54.6,29.69,SW,236,0.0,0.0,89,0.00,,CLR,0.00,16.00,VWS V14.01,2013-08-04 10:06:00,
2013-08-04 06:08:00,57.8,54.6,29.69,SW,236,0.0,0.0,89,0.00,,CLR,0.00,16.00,VWS V14.01,2013-08-04 10:08:00,
2013-08-04 06:09:00,57.8,54.6,29.69,SW,236,0.0,0.0,89,0.00,,CLR,0.00,16.00,VWS V14.01,2013-08-04 10:09:00,
2013-08-04 06:11:00,57.8,54.6,29.69,SW,236,0.0,0.0,89,0.00,,CLR,0.00,18.00,VWS V14.01,2013-08-04 10:11:00,
2013-08-04 06:12:00,57.8,54.6,29.69,SW,236,0.0,0.0,89,0.00,,CLR,0.00,18.00,VWS V14.01,2013-08-04 10:12:00,
2013-08-04 06:13:00,57.8,54.6,29.69,SW,236,0.0,0.0,89,0.00,,CLR,0.00,18.00,VWS V14.01,2013-08-04 10:13:00,
2013-08-04 06:14:00,57.8,54.6,29.69,SW,236,0.0,0.0,89,0.00,,CLR,0.00,19.00,VWS V14.01,2013-08-04 10:14:00,
2013-08-04 06:16:00,57.8,54.6,29.70,SW,236,0.0,0.0,89,0.00,,CLR,0.00,19.00,VWS V14.01,2013-08-04 10:16:00,
2013-08-04 06:17:00,57.8,54.6,29.70,SW,236,0.0,0.0,89,0.00,,CLR,0.00,19.00,VWS V14.01,2013-08-04 10:17:00,
2013-08-04 06:18:00,57.8,54.6,29.70,SW,236,0.0,0.0,89,0.00,,CLR,0.00,21.00,VWS V14.01,2013-08-04 10:18:00,
2013-08-04 06:19:00,57.8,54.6,29.70,SW,236,0.0,0.0,89,0.00,,CLR,0.00,21.00,VWS V14.01,2013-08-04 10:19:00,
2013-08-04 06:21:00,57.8,54.6,29.70,SW,236,0.0,0.0,89,0.00,,CLR,0.00,21.00,VWS V14.01,2013-08-04 10:21:00,
2013-08-04 06:23:00,57.8,54.6,29.70,SW,236,0.0,0.0,89,0.00,,CLR,0.00,21.00,VWS V14.01,2013-08-04 10:23:00,
2013-08-04 06:24:00,57.8,54.6,29.70,SW,236,0.0,0.0,89,0.00,,CLR,0.00,21.00,VWS V14.01,2013-08-04 10:24:00,
2013-08-04 06:26:00,57.8,54.6,29.70,SW,236,0.0,0.0,89,0.00,,CLR,0.00,21.00,VWS V14.01,2013-08-04 10:26:00,
2013-08-04 06:28:00,57.8,54.6,29.70,SW,236,1.0,1.0,89,0.00,,CLR,0.00,23.00,VWS V14.01,2013-08-04 10:28:00,
2013-08-04 06:29:00,57.8,54.6,29.70,SW,236,1.0,1.0,89,0.00,,CLR,0.00,23.00,VWS V14.01,2013-08-04 10:29:00,
2013-08-04 06:30:00,58.0,54.8,29.70,WSW,243,0.0,1.0,89,0.00,,OVC050,0.00,26.00,VWS V14.01,2013-08-04 10:30:00,
2013-08-04 06:31:00,58.0,54.8,29.70,WSW,241,0.0,1.0,89,0.00,,CLR,0.00,26.00,VWS V14.01,2013-08-04 10:31:00,
2013-08-04 06:32:00,58.0,54.8,29.70,WSW,243,0.0,0.0,89,0.00,,CLR,0.00,26.00,VWS V14.01,2013-08-04 10:32:00,
2013-08-04 06:33:00,58.0,54.8,29.70,WSW,243,0.0,0.0,89,0.00,,CLR,0.00,26.00,VWS V14.01,2013-08-04 10:33:00,
2013-08-04 06:34:00,58.0,54.8,29.70,WSW,243,0.0,0.0,89,0.00,,CLR,0.00,26.00,VWS V14.01,2013-08-04 10:34:00,
2013-08-04 06:35:00,58.0,55.1,29.70,WSW,246,0.0,0.0,90,0.00,,CLR,0.00,32.00,VWS V14.01,2013-08-04 10:35:00,
2013-08-04 06:36:00,58.1,55.2,29.70,WSW,246,0.0,0.0,90,0.00,,CLR,0.00,32.00,VWS V14.01,2013-08-04 10:36:00,
2013-08-04 06:37:00,58.1,55.2,29.70,WSW,246,0.0,0.0,90,0.00,,CLR,0.00,32.00,VWS V14.01,2013-08-04 10:37:00,
2013-08-04 06:39:00,58.1,55.2,29.70,WSW,257,0.0,0.0,90,0.00,,CLR,0.00,32.00,VWS V14.01,2013-08-04 10:39:00,
2013-08-04 06:40:00,58.1,55.2,29.70,WSW,257,0.0,0.0,90,0.00,,CLR,0.00,42.00,VWS V14.01,2013-08-04 10:40:00,
2013-08-04 06:42:00,58.3,55.4,29.70,NW,320,0.0,2.0,90,0.00,,CLR,0.00,42.00,VWS V14.01,2013-08-04 10:42:00,
2013-08-04 06:44:00,58.3,55.4,29.70,NNW,344,0.0,2.0,90,0.00,,CLR,0.00,51.00,VWS V14.01,2013-08-04 10:44:00,
2013-08-04 06:45:00,58.3,55.4,29.70,NNW,335,0.0,2.0,90,0.00,,CLR,0.00,51.00,VWS V14.01,2013-08-04 10:45:00,
2013-08-04 06:47:00,58.4,55.5,29.70,NNW,335,0.0,2.0,90,0.00,,CLR,0.00,51.00,VWS V14.01,2013-08-04 10:47:00,
2013-08-04 06:49:00,58.6,55.7,29.70,West,274,0.0,2.0,90,0.00,,CLR,0.00,58.00,VWS V14.01,2013-08-04 10:49:00,
2013-08-04 06:50:00,58.6,55.7,29.70,West,275,0.0,2.0,90,0.00,,CLR,0.00,56.00,VWS V14.01,2013-08-04 10:50:00,
2013-08-04 06:51:00,58.7,55.5,29.70,West,272,4.0,4.0,89,0.00,,CLR,0.00,56.00,VWS V14.01,2013-08-04 10:51:00,
2013-08-04 06:52:00,58.7,55.5,29.70,NW,325,0.0,4.0,89,0.00,,CLR,0.00,56.00,VWS V14.01,2013-08-04 10:52:00,
2013-08-04 06:54:00,58.9,55.7,29.70,WNW,292,4.0,6.0,89,0.00,,CLR,0.00,55.00,VWS V14.01,2013-08-04 10:54:00,
2013-08-04 06:55:00,58.9,55.7,29.70,WNW,282,4.0,6.0,89,0.00,,CLR,0.00,55.00,VWS V14.01,2013-08-04 10:55:00,
2013-08-04 06:56:00,59.0,55.8,29.70,WNW,285,0.0,6.0,89,0.00,,CLR,0.00,51.00,VWS V14.01,2013-08-04 10:56:00,
2013-08-04 06:58:00,59.0,55.8,29.70,NNW,342,0.0,6.0,89,0.00,,CLR,0.00,49.00,VWS V14.01,2013-08-04 10:58:00,
2013-08-04 06:59:00,59.2,56.0,29.70,WNW,295,0.0,6.0,89,0.00,,CLR,0.00,46.00,VWS V14.01,2013-08-04 10:59:00,
2013-08-04 07:00:00,59.2,56.0,29.70,WNW,299,0.0,6.0,89,0.00,,CLR,0.00,46.00,VWS V14.01,2013-08-04 11:00:00,
2013-08-04 07:01:00,59.3,56.1,29.70,West,278,0.0,6.0,89,0.00,,CLR,0.00,44.00,VWS V14.01,2013-08-04 11:01:00,
2013-08-04 07:04:00,59.3,55.8,29.70,WNW,295,3.0,4.0,88,0.00,,CLR,0.00,48.00,VWS V14.01,2013-08-04 11:04:00,
2013-08-04 07:05:00,59.3,55.8,29.70,WNW,295,0.0,4.0,88,0.00,,CLR,0.00,48.00,VWS V14.01,2013-08-04 11:05:00,
2013-08-04 07:06:00,59.5,56.0,29.70,West,270,1.0,6.0,88,0.00,,CLR,0.00,51.00,VWS V14.01,2013-08-04 11:06:00,
2013-08-04 07:07:00,59.5,56.0,29.70,West,271,3.0,6.0,88,0.00,,CLR,0.00,51.00,VWS V14.01,2013-08-04 11:07:00,
2013-08-04 07:09:00,59.6,56.0,29.70,WNW,284,2.0,6.0,88,0.00,,CLR,0.00,51.00,VWS V14.01,2013-08-04 11:09:00,
2013-08-04 07:11:00,59.6,56.0,29.70,West,277,0.0,6.0,88,0.00,,CLR,0.00,51.00,VWS V14.01,2013-08-04 11:11:00,
2013-08-04 07:12:00,59.6,56.0,29.70,West,277,0.0,6.0,88,0.00,,CLR,0.00,56.00,VWS V14.01,2013-08-04 11:12:00,
2013-08-04 07:14:00,59.8,56.2,29.70,West,271,0.0,6.0,88,0.00,,CLR,0.00,62.00,VWS V14.01,2013-08-04 11:14:00,
2013-08-04 07:15:00,59.8,56.2,29.70,West,272,1.0,6.0,88,0.00,,CLR,0.00,62.00,VWS V14.01,2013-08-04 11:15:00,
2013-08-04 07:17:00,59.9,56.3,29.70,NW,320,0.0,6.0,88,0.00,,CLR,0.00,62.00,VWS V14.01,2013-08-04 11:17:00,
2013-08-04 07:18:00,59.9,56.3,29.70,NW,304,0.0,6.0,88,0.00,,CLR,0.00,63.00,VWS V14.01,2013-08-04 11:18:00,
2013-08-04 07:20:00,60.1,56.2,29.70,NW,318,0.0,6.0,87,0.00,,CLR,0.00,60.00,VWS V14.01,2013-08-04 11:20:00,
2013-08-04 07:21:00,60.1,56.2,29.70,WNW,284,2.0,6.0,87,0.00,,CLR,0.00,58.00,VWS V14.01,2013-08-04 11:21:00,
2013-08-04 07:22:00,60.2,56.3,29.70,West,278,3.0,6.0,87,0.00,,CLR,0.00,58.00,VWS V14.01,2013-08-04 11:22:00,
2013-08-04 07:24:00,60.2,56.3,29.70,West,281,0.0,6.0,87,0.00,,CLR,0.00,51.00,VWS V14.01,2013-08-04 11:24:00,
2013-08-04 07:26:00,60.4,56.5,29.70,WNW,299,0.0,7.0,87,0.00,,CLR,0.00,55.00,VWS V14.01,2013-08-04 11:26:00,
2013-08-04 07:27:00,60.4,56.2,29.70,WNW,287,0.0,7.0,86,0.00,,CLR,0.00,55.00,VWS V14.01,2013-08-04 11:27:00,
2013-08-04 07:29:00,60.4,56.2,29.70,NNW,328,0.0,7.0,86,0.00,,CLR,0.00,46.00,VWS V14.01,2013-08-04 11:29:00,
2013-08-04 07:30:00,60.5,56.3,29.70,WNW,285,0.0,7.0,86,0.00,,OVC050,0.00,58.00,VWS V14.01,2013-08-04 11:30:00,
2013-08-04 07:31:00,60.5,56.3,29.70,WNW,285,1.0,7.0,86,0.00,,CLR,0.00,55.00,VWS V14.01,2013-08-04 11:31:00,
2013-08-04 07:32:00,60.5,56.3,29.70,WNW,285,0.0,0.0,86,0.00,,CLR,0.00,58.00,VWS V14.01,2013-08-04 11:32:00,
2013-08-04 07:33:00,60.5,56.3,29.70,WNW,285,0.0,0.0,86,0.00,,CLR,0.00,70.00,VWS V14.01,2013-08-04 11:33:00,
2013-08-04 07:35:00,60.5,56.3,29.70,WNW,284,0.0,1.0,86,0.00,,CLR,0.00,88.00,VWS V14.01,2013-08-04 11:35:00,
2013-08-04 07:37:00,60.7,56.2,29.70,WNW,287,0.0,1.0,85,0.00,,CLR,0.00,134.00,VWS V14.01,2013-08-04 11:37:00,
2013-08-04 07:38:00,60.7,56.2,29.70,WNW,287,0.0,1.0,85,0.00,,CLR,0.00,90.00,VWS V14.01,2013-08-04 11:38:00,
2013-08-04 07:40:00,60.7,56.2,29.70,WNW,287,0.0,1.0,85,0.00,,CLR,0.00,137.00,VWS V14.01,2013-08-04 11:40:00,
2013-08-04 07:42:00,60.9,56.7,29.70,WNW,294,0.0,1.0,86,0.00,,CLR,0.00,174.00,VWS V14.01,2013-08-04 11:42:00,
2013-08-04 07:43:00,60.9,56.7,29.70,WNW,287,1.0,1.0,86,0.00,,CLR,0.00,174.00,VWS V14.01,2013-08-04 11:43:00,
2013-08-04 07:44:00,60.9,56.7,29.70,WNW,285,0.0,1.0,86,0.00,,CLR,0.00,252.00,VWS V14.01,2013-08-04 11:44:00,
2013-08-04 07:45:00,61.0,56.8,29.70,NW,311,0.0,1.0,86,0.00,,CLR,0.00,259.00,VWS V14.01,2013-08-04 11:45:00,
2013-08-04 07:48:00,61.3,56.8,29.70,West,268,0.0,1.0,85,0.00,,CLR,0.00,238.00,VWS V14.01,2013-08-04 11:48:00,
2013-08-04 07:49:00,61.3,56.8,29.70,West,275,1.0,2.0,85,0.00,,CLR,0.00,220.00,VWS V14.01,2013-08-04 11:49:00,
2013-08-04 07:52:00,61.6,57.0,29.70,NNW,339,0.0,2.0,85,0.00,,CLR,0.00,280.00,VWS V14.01,2013-08-04 11:52:00,
2013-08-04 07:53:00,61.6,57.0,29.70,WNW,294,0.0,2.0,85,0.00,,CLR,0.00,245.00,VWS V14.01,2013-08-04 11:53:00,
2013-08-04 07:54:00,61.8,57.2,29.70,North,0,1.0,2.0,85,0.00,,CLR,0.00,245.00,VWS V14.01,2013-08-04 11:54:00,
2013-08-04 07:55:00,62.0,57.1,29.70,NW,325,0.0,2.0,84,0.00,,CLR,0.00,245.00,VWS V14.01,2013-08-04 11:55:00,
2013-08-04 07:57:00,62.1,57.2,29.70,WNW,282,0.0,3.0,84,0.00,,CLR,0.00,97.00,VWS V14.01,2013-08-04 11:57:00,
2013-08-04 07:58:00,62.3,57.1,29.70,WNW,296,0.0,3.0,83,0.00,,CLR,0.00,97.00,VWS V14.01,2013-08-04 11:58:00,
2013-08-04 08:00:00,62.4,57.2,29.70,West,281,0.0,3.0,83,0.00,,CLR,0.00,299.00,VWS V14.01,2013-08-04 12:00:00,
2013-08-04 08:01:00,62.6,57.0,29.69,NW,313,0.0,3.0,82,0.00,,CLR,0.00,257.00,VWS V14.01,2013-08-04 12:01:00,
2013-08-04 08:02:00,62.7,57.1,29.69,NW,326,0.0,0.0,82,0.00,,CLR,0.00,232.00,VWS V14.01,2013-08-04 12:02:00,
2013-08-04 08:03:00,62.9,57.3,29.69,NNW,335,0.0,0.0,82,0.00,,CLR,0.00,232.00,VWS V14.01,2013-08-04 12:03:00,
2013-08-04 08:04:00,62.9,57.0,29.69,NW,311,0.0,5.0,81,0.00,,CLR,0.00,209.00,VWS V14.01,2013-08-04 12:04:00,
2013-08-04 08:05:00,63.1,57.2,29.69,NNW,347,2.0,5.0,81,0.00,,CLR,0.00,209.00,VWS V14.01,2013-08-04 12:05:00,
2013-08-04 08:07:00,63.2,56.9,29.69,West,280,3.0,6.0,80,0.00,,CLR,0.00,243.00,VWS V14.01,2013-08-04 12:07:00,
2013-08-04 08:08:00,63.4,56.8,29.69,WNW,299,1.0,6.0,79,0.00,,CLR,0.00,236.00,VWS V14.01,2013-08-04 12:08:00,
2013-08-04 08:09:00,63.5,56.9,29.69,WNW,296,0.0,6.0,79,0.00,,CLR,0.00,276.00,VWS V14.01,2013-08-04 12:09:00,
2013-08-04 08:10:00,63.5,57.2,29.69,WNW,296,0.0,6.0,80,0.00,,CLR,0.00,282.00,VWS V14.01,2013-08-04 12:10:00,
2013-08-04 08:12:00,63.9,57.3,29.69,WNW,288,0.0,6.0,79,0.00,,CLR,0.00,287.00,VWS V14.01,2013-08-04 12:12:00,
2013-08-04 08:13:00,64.0,57.4,29.69,WNW,291,2.0,6.0,79,0.00,,CLR,0.00,296.00,VWS V14.01,2013-08-04 12:13:00,
2013-08-04 08:14:00,64.0,57.4,29.69,WNW,292,0.0,6.0,79,0.00,,CLR,0.00,327.00,VWS V14.01,2013-08-04 12:14:00,
2013-08-04 08:15:00,64.2,57.2,29.69,WSW,244,5.0,6.0,78,0.00,,CLR,0.00,347.00,VWS V14.01,2013-08-04 12:15:00,
2013-08-04 08:17:00,64.5,57.5,29.70,NW,305,0.0,6.0,78,0.00,,CLR,0.00,352.00,VWS V14.01,2013-08-04 12:17:00,
2013-08-04 08:18:00,64.5,57.5,29.70,WNW,285,0.0,6.0,78,0.00,,CLR,0.00,357.00,VWS V14.01,2013-08-04 12:18:00,
2013-08-04 08:19:00,64.7,57.7,29.70,NW,320,3.0,6.0,78,0.00,,CLR,0.00,359.00,VWS V14.01,2013-08-04 12:19:00,
2013-08-04 08:20:00,64.8,57.4,29.70,WNW,295,6.0,6.0,77,0.00,,CLR,0.00,362.00,VWS V14.01,2013-08-04 12:20:00,
2013-08-04 08:23:00,64.8,57.1,29.70,WNW,287,2.0,6.0,76,0.00,,CLR,0.00,364.00,VWS V14.01,2013-08-04 12:23:00,
2013-08-04 08:25:00,65.3,57.2,29.70,WNW,287,0.0,6.0,75,0.00,,CLR,0.00,364.00,VWS V14.01,2013-08-04 12:25:00,
2013-08-04 08:28:00,65.6,57.8,29.70,NW,305,0.0,6.0,76,0.00,,CLR,0.00,389.00,VWS V14.01,2013-08-04 12:28:00,
2013-08-04 08:30:00,65.8,57.7,29.70,West,264,2.0,6.0,75,0.00,,CLR,0.00,391.00,VWS V14.01,2013-08-04 12:30:00,
2013-08-04 08:31:00,66.0,57.9,29.70,West,264,0.0,6.0,75,0.00,,CLR,0.00,348.00,VWS V14.01,2013-08-04 12:31:00,
2013-08-04 08:34:00,66.3,58.2,29.70,NW,309,2.0,2.0,75,0.00,,CLR,0.00,336.00,VWS V14.01,2013-08-04 12:34:00,
2013-08-04 08:35:00,66.4,57.9,29.70,West,267,2.0,6.0,74,0.00,,CLR,0.00,408.00,VWS V14.01,2013-08-04 12:35:00,
2013-08-04 08:37:00,66.6,58.1,29.70,West,274,3.0,7.0,74,0.00,,CLR,0.00,413.00,VWS V14.01,2013-08-04 12:37:00,
2013-08-04 08:39:00,66.8,58.3,29.70,West,272,0.0,7.0,74,0.00,,CLR,0.00,421.00,VWS V14.01,2013-08-04 12:39:00,
2013-08-04 08:40:00,66.9,58.3,29.70,WNW,284,5.0,7.0,74,0.00,,CLR,0.00,424.00,VWS V14.01,2013-08-04 12:40:00,
2013-08-04 08:42:00,67.1,57.8,29.70,North,11,0.0,7.0,72,0.00,,CLR,0.00,429.00,VWS V14.01,2013-08-04 12:42:00,
2013-08-04 08:44:00,67.3,57.6,29.70,NW,325,6.0,11.0,71,0.00,,CLR,0.00,436.00,VWS V14.01,2013-08-04 12:44:00,
2013-08-04 08:45:00,67.3,57.6,29.70,WNW,284,1.0,11.0,71,0.00,,CLR,0.00,438.00,VWS V14.01,2013-08-04 12:45:00,
2013-08-04 08:47:00,67.4,57.7,29.70,WNW,294,2.0,11.0,71,0.00,,CLR,0.00,443.00,VWS V14.01,2013-08-04 12:47:00,
2013-08-04 08:49:00,67.6,58.3,29.70,WNW,288,0.0,11.0,72,0.00,,CLR,0.00,450.00,VWS V14.01,2013-08-04 12:49:00,
2013-08-04 08:50:00,67.8,58.5,29.70,NW,319,3.0,11.0,72,0.00,,CLR,0.00,454.00,VWS V14.01,2013-08-04 12:50:00,
2013-08-04 08:51:00,67.8,58.1,29.70,West,261,0.0,12.0,71,0.00,,CLR,0.00,456.00,VWS V14.01,2013-08-04 12:51:00,
2013-08-04 08:52:00,67.9,58.2,29.70,WNW,289,0.0,12.0,71,0.00,,CLR,0.00,457.00,VWS V14.01,2013-08-04 12:52:00,
2013-08-04 08:55:00,68.1,58.3,29.70,NW,319,0.0,12.0,71,0.00,,CLR,0.00,468.00,VWS V14.01,2013-08-04 12:55:00,
2013-08-04 08:56:00,68.1,58.7,29.70,NNW,328,0.0,12.0,72,0.00,,CLR,0.00,470.00,VWS V14.01,2013-08-04 12:56:00,
2013-08-04 08:57:00,68.3,58.5,29.70,NNW,342,0.0,12.0,71,0.00,,CLR,0.00,472.00,VWS V14.01,2013-08-04 12:57:00,
2013-08-04 08:59:00,68.4,58.6,29.70,WNW,296,0.0,12.0,71,0.00,,CLR,0.00,477.00,VWS V14.01,2013-08-04 12:59:00,
2013-08-04 09:00:00,68.4,57.8,29.70,NNW,335,0.0,12.0,69,0.00,,CLR,0.00,482.00,VWS V14.01,2013-08-04 13:00:00,
2013-08-04 09:01:00,68.6,58.8,29.69,WNW,299,0.0,12.0,71,0.00,,CLR,0.00,484.00,VWS V14.01,2013-08-04 13:01:00,
2013-08-04 09:02:00,68.8,58.6,29.69,West,280,0.0,0.0,70,0.00,,CLR,0.00,489.00,VWS V14.01,2013-08-04 13:02:00,
2013-08-04 09:03:00,68.8,58.6,29.69,West,280,0.0,0.0,70,0.00,,CLR,0.00,489.00,VWS V14.01,2013-08-04 13:03:00,
2013-08-04 09:04:00,68.8,58.6,29.69,WNW,292,3.0,6.0,70,0.00,,CLR,0.00,493.00,VWS V14.01,2013-08-04 13:04:00,
2013-08-04 09:05:00,68.9,58.7,29.69,WNW,291,0.0,6.0,70,0.00,,CLR,0.00,496.00,VWS V14.01,2013-08-04 13:05:00,
2013-08-04 09:07:00,69.1,58.5,29.69,WNW,298,0.0,6.0,69,0.00,,CLR,0.00,501.00,VWS V14.01,2013-08-04 13:07:00,
2013-08-04 09:08:00,69.1,59.3,29.69,WNW,294,1.0,6.0,71,0.00,,CLR,0.00,501.00,VWS V14.01,2013-08-04 13:08:00,
2013-08-04 09:10:00,69.3,58.3,29.69,WNW,288,5.0,9.0,68,0.00,,CLR,0.00,510.00,VWS V14.01,2013-08-04 13:10:00,
2013-08-04 09:12:00,69.4,58.0,29.69,WNW,289,0.0,9.0,67,0.00,,CLR,0.00,516.00,VWS V14.01,2013-08-04 13:12:00,
2013-08-04 09:14:00,69.4,58.0,29.69,West,281,0.0,11.0,67,0.00,,CLR,0.00,521.00,VWS V14.01,2013-08-04 13:14:00,
2013-08-04 09:15:00,69.6,59.0,29.69,NNW,328,2.0,11.0,69,0.00,,CLR,0.00,524.00,VWS V14.01,2013-08-04 13:15:00,
2013-08-04 09:16:00,69.6,58.2,29.69,NW,308,6.0,11.0,67,0.00,,CLR,0.00,528.00,VWS V14.01,2013-08-04 13:16:00,
2013-08-04 09:17:00,69.8,58.4,29.69,WNW,301,7.0,11.0,67,0.00,,CLR,0.00,531.00,VWS V14.01,2013-08-04 13:17:00,
2013-08-04 09:19:00,69.9,58.5,29.69,NNW,340,0.0,11.0,67,0.00,,CLR,0.00,537.00,VWS V14.01,2013-08-04 13:19:00,
2013-08-04 09:20:00,69.9,58.5,29.69,West,265,0.0,11.0,67,0.00,,CLR,0.00,538.00,VWS V14.01,2013-08-04 13:20:00,
2013-08-04 09:21:00,69.9,58.5,29.69,West,265,0.0,11.0,67,0.00,,CLR,0.00,540.00,VWS V14.01,2013-08-04 13:21:00,
2013-08-04 09:23:00,70.1,57.8,29.69,West,268,0.0,11.0,65,0.00,,CLR,0.00,544.00,VWS V14.01,2013-08-04 13:23:00,
2013-08-04 09:24:00,70.3,58.4,29.69,West,268,0.0,11.0,66,0.00,,CLR,0.00,547.00,VWS V14.01,2013-08-04 13:24:00,
2013-08-04 09:26:00,70.3,57.6,29.69,WNW,301,0.0,11.0,64,0.00,,CLR,0.00,554.00,VWS V14.01,2013-08-04 13:26:00,
2013-08-04 09:28:00,70.6,59.1,29.69,WSW,241,0.0,11.0,67,0.00,,CLR,0.00,558.00,VWS V14.01,2013-08-04 13:28:00,
2013-08-04 09:30:00,70.8,58.9,29.69,WNW,292,3.0,11.0,66,0.00,,OVC050,0.00,568.00,VWS V14.01,2013-08-04 13:30:00,
2013-08-04 09:31:00,70.8,58.9,29.69,WNW,289,0.0,11.0,66,0.00,,CLR,0.00,567.00,VWS V14.01,2013-08-04 13:31:00,
2013-08-04 09:32:00,70.9,59.0,29.69,West,277,0.0,3.0,66,0.00,,CLR,0.00,584.00,VWS V14.01,2013-08-04 13:32:00,
2013-08-04 09:33:00,70.9,58.6,29.69,NNW,328,0.0,3.0,65,0.00,,CLR,0.00,579.00,VWS V14.01,2013-08-04 13:33:00,
2013-08-04 09:36:00,71.1,60.0,29.69,WNW,291,0.0,3.0,68,0.00,,CLR,0.00,581.00,VWS V14.01,2013-08-04 13:36:00,
2013-08-04 09:37:00,71.3,58.9,29.69,WNW,284,0.0,3.0,65,0.00,,CLR,0.00,582.00,VWS V14.01,2013-08-04 13:37:00,
2013-08-04 09:38:00,71.3,58.9,29.69,WNW,285,0.0,3.0,65,0.00,,CLR,0.00,584.00,VWS V14.01,2013-08-04 13:38:00,
2013-08-04 09:39:00,71.3,58.9,29.69,WNW,289,0.0,3.0,65,0.00,,CLR,0.00,596.00,VWS V14.01,2013-08-04 13:39:00,
2013-08-04 09:41:00,71.5,59.6,29.69,West,278,0.0,4.0,66,0.00,,CLR,0.00,607.00,VWS V14.01,2013-08-04 13:41:00,
2013-08-04 09:43:00,71.6,59.2,29.69,NNW,347,0.0,6.0,65,0.00,,CLR,0.00,616.00,VWS V14.01,2013-08-04 13:43:00,
2013-08-04 09:44:00,71.6,59.2,29.69,WNW,284,1.0,6.0,65,0.00,,CLR,0.00,621.00,VWS V14.01,2013-08-04 13:44:00,
2013-08-04 09:47:00,71.6,58.3,29.69,NW,308,0.0,6.0,63,0.00,,CLR,0.00,621.00,VWS V14.01,2013-08-04 13:47:00,
2013-08-04 09:48:00,71.8,59.0,29.69,NW,308,0.0,6.0,64,0.00,,CLR,0.00,626.00,VWS V14.01,2013-08-04 13:48:00,
2013-08-04 09:49:00,71.8,58.5,29.69,NW,308,0.0,6.0,63,0.00,,CLR,0.00,626.00,VWS V14.01,2013-08-04 13:49:00,
2013-08-04 09:52:00,71.8,58.5,29.69,NNW,346,1.0,6.0,63,0.00,,CLR,0.00,602.00,VWS V14.01,2013-08-04 13:52:00,
2013-08-04 09:54:00,71.8,58.5,29.69,NW,319,0.0,6.0,63,0.00,,CLR,0.00,123.00,VWS V14.01,2013-08-04 13:54:00,
2013-08-04 09:55:00,71.8,59.0,29.69,NW,319,0.0,6.0,64,0.00,,CLR,0.00,143.00,VWS V14.01,2013-08-04 13:55:00,
2013-08-04 09:57:00,71.8,59.4,29.69,NW,311,1.0,6.0,65,0.00,,CLR,0.00,725.00,VWS V14.01,2013-08-04 13:57:00,
2013-08-04 09:59:00,71.8,58.1,29.69,WNW,285,0.0,6.0,62,0.00,,CLR,0.00,707.00,VWS V14.01,2013-08-04 13:59:00,
2013-08-04 10:00:00,71.8,59.0,29.69,North,352,0.0,6.0,64,0.00,,CLR,0.00,700.00,VWS V14.01,2013-08-04 14:00:00,
2013-08-04 10:03:00,72.0,58.3,29.69,West,278,3.0,7.0,62,0.00,,CLR,0.00,704.00,VWS V14.01,2013-08-04 14:03:00,
2013-08-04 10:04:00,72.0,58.7,29.69,NNW,332,0.0,7.0,63,0.00,,CLR,0.00,691.00,VWS V14.01,2013-08-04 14:04:00,
2013-08-04 10:05:00,72.1,59.7,29.69,NNW,339,0.0,7.0,65,0.00,,CLR,0.00,691.00,VWS V14.01,2013-08-04 14:05:00,
2013-08-04 10:08:00,72.1,57.5,29.69,NNW,342,0.0,7.0,60,0.00,,CLR,0.00,714.00,VWS V14.01,2013-08-04 14:08:00,
2013-08-04 10:10:00,72.3,57.2,29.69,North,0,0.0,7.0,59,0.00,,CLR,0.00,727.00,VWS V14.01,2013-08-04 14:10:00,
2013-08-04 10:11:00,72.3,57.7,29.69,WNW,288,0.0,7.0,60,0.00,,CLR,0.00,727.00,VWS V14.01,2013-08-04 14:11:00,
2013-08-04 10:14:00,72.7,58.5,29.69,WNW,295,0.0,7.0,61,0.00,,CLR,0.00,787.00,VWS V14.01,2013-08-04 14:14:00,
2013-08-04 10:15:00,72.7,57.6,29.69,SSW,200,0.0,7.0,59,0.00,,CLR,0.00,806.00,VWS V14.01,2013-08-04 14:15:00,
2013-08-04 10:16:00,72.7,58.5,29.69,NW,309,2.0,7.0,61,0.00,,CLR,0.00,806.00,VWS V14.01,2013-08-04 14:16:00,
2013-08-04 10:19:00,72.8,58.1,29.68,NW,326,0.0,7.0,60,0.00,,CLR,0.00,806.00,VWS V14.01,2013-08-04 14:19:00,
2013-08-04 10:20:00,72.7,58.0,29.68,NW,323,0.0,7.0,60,0.00,,CLR,0.00,806.00,VWS V14.01,2013-08-04 14:20:00,
2013-08-04 10:21:00,72.7,57.6,29.68,WNW,291,0.0,7.0,59,0.00,,CLR,0.00,806.00,VWS V14.01,2013-08-04 14:21:00,
2013-08-04 10:24:00,72.7,59.4,29.68,West,278,0.0,7.0,63,0.00,,CLR,0.00,794.00,VWS V14.01,2013-08-04 14:24:00,
2013-08-04 10:25:00,72.7,58.0,29.68,West,278,0.0,7.0,60,0.00,,CLR,0.00,790.00,VWS V14.01,2013-08-04 14:25:00,
2013-08-04 10:26:00,72.7,56.6,29.68,West,278,0.0,7.0,57,0.00,,CLR,0.00,787.00,VWS V14.01,2013-08-04 14:26:00,
2013-08-04 10:27:00,72.7,57.6,29.68,West,278,0.0,7.0,59,0.00,,CLR,0.00,787.00,VWS V14.01,2013-08-04 14:27:00,
2013-08-04 10:29:00,72.8,58.6,29.68,West,278,0.0,7.0,61,0.00,,CLR,0.00,794.00,VWS V14.01,2013-08-04 14:29:00,
2013-08-04 10:30:00,72.8,57.2,29.68,West,278,0.0,7.0,58,0.00,,CLR,0.00,799.00,VWS V14.01,2013-08-04 14:30:00,
2013-08-04 10:31:00,72.8,56.7,29.69,West,278,0.0,7.0,57,0.00,,CLR,0.00,820.00,VWS V14.01,2013-08-04 14:31:00,
2013-08-04 10:32:00,73.0,57.4,29.69,West,278,0.0,7.0,58,0.00,,CLR,0.00,836.00,VWS V14.01,2013-08-04 14:32:00,
2013-08-04 10:34:00,73.2,58.5,29.69,West,281,1.0,1.0,60,0.00,,CLR,0.00,880.00,VWS V14.01,2013-08-04 14:34:00,
2013-08-04 10:35:00,73.2,60.3,29.69,WNW,282,0.0,1.0,64,0.00,,CLR,0.00,880.00,VWS V14.01,2013-08-04 14:35:00,
2013-08-04 10:36:00,73.2,60.3,29.69,WNW,282,0.0,1.0,64,0.00,,CLR,0.00,880.00,VWS V14.01,2013-08-04 14:36:00,
2013-08-04 10:37:00,73.3,58.1,29.69,WNW,282,0.0,1.0,59,0.00,,CLR,0.00,245.00,VWS V14.01,2013-08-04 14:37:00,
2013-08-04 10:40:00,73.3,58.1,29.69,NNW,342,0.0,1.0,59,0.00,,CLR,0.00,310.00,VWS V14.01,2013-08-04 14:40:00,
2013-08-04 10:41:00,73.3,57.7,29.69,WNW,301,0.0,1.0,58,0.00,,CLR,0.00,211.00,VWS V14.01,2013-08-04 14:41:00,
2013-08-04 10:42:00,73.2,58.5,29.69,WNW,298,0.0,1.0,60,0.00,,CLR,0.00,213.00,VWS V14.01,2013-08-04 14:42:00,
2013-08-04 10:46:00,73.0,57.4,29.69,West,272,0.0,4.0,58,0.00,,CLR,0.00,229.00,VWS V14.01,2013-08-04 14:46:00,
2013-08-04 10:47:00,73.0,57.4,29.69,West,272,0.0,4.0,58,0.00,,CLR,0.00,229.00,VWS V14.01,2013-08-04 14:47:00,
2013-08-04 10:51:00,73.0,59.2,29.69,West,275,3.0,4.0,62,0.00,,CLR,0.00,913.00,VWS V14.01,2013-08-04 14:51:00,
2013-08-04 10:52:00,73.0,57.8,29.69,West,270,0.0,4.0,59,0.00,,CLR,0.00,913.00,VWS V14.01,2013-08-04 14:52:00,
2013-08-04 10:53:00,73.0,58.8,29.69,West,270,0.0,4.0,61,0.00,,CLR,0.00,913.00,VWS V14.01,2013-08-04 14:53:00,
2013-08-04 10:56:00,73.2,58.5,29.69,West,280,0.0,4.0,60,0.00,,CLR,0.00,913.00,VWS V14.01,2013-08-04 14:56:00,
2013-08-04 10:57:00,73.2,58.5,29.69,West,275,1.0,10.0,60,0.00,,CLR,0.00,297.00,VWS V14.01,2013-08-04 14:57:00,
2013-08-04 10:58:00,73.2,58.5,29.69,NNE,17,0.0,10.0,60,0.00,,CLR,0.00,297.00,VWS V14.01,2013-08-04 14:58:00,
2013-08-04 11:00:00,73.2,58.5,29.69,WNW,294,0.0,10.0,60,0.00,,OVC050,0.00,359.00,VWS V14.01,2013-08-04 15:00:00,
2013-08-04 11:01:00,73.2,58.5,29.69,West,270,0.0,10.0,60,0.00,,FEW042,0.00,359.00,VWS V14.01,2013-08-04 15:01:00,
2013-08-04 11:03:00,73.2,59.0,29.69,North,4,0.0,0.0,61,0.00,,FEW042,0.00,473.00,VWS V14.01,2013-08-04 15:03:00,
2013-08-04 11:04:00,73.3,59.0,29.69,WSW,251,0.0,0.0,61,0.00,,FEW042,0.00,473.00,VWS V14.01,2013-08-04 15:04:00,
2013-08-04 11:07:00,73.7,59.9,29.69,NW,316,5.0,6.0,62,0.00,,FEW042,0.00,933.00,VWS V14.01,2013-08-04 15:07:00,
2013-08-04 11:08:00,73.9,59.2,29.69,NNW,333,0.0,6.0,60,0.00,,FEW042,0.00,950.00,VWS V14.01,2013-08-04 15:08:00,
2013-08-04 11:09:00,74.0,60.6,29.69,NNW,329,0.0,6.0,63,0.00,,FEW042,0.00,992.00,VWS V14.01,2013-08-04 15:09:00,
2013-08-04 11:12:00,74.2,59.4,29.69,NNW,336,0.0,6.0,60,0.00,,FEW042,0.00,1015.00,VWS V14.01,2013-08-04 15:12:00,
2013-08-04 11:13:00,74.2,59.0,29.69,WNW,292,2.0,7.0,59,0.00,,FEW042,0.00,1015.00,VWS V14.01,2013-08-04 15:13:00,
2013-08-04 11:14:00,74.2,59.4,29.69,WNW,301,0.0,7.0,60,0.00,,FEW042,0.00,1015.00,VWS V14.01,2013-08-04 15:14:00,
2013-08-04 11:18:00,74.2,59.4,29.69,WNW,287,0.0,7.0,60,0.00,,FEW042,0.00,940.00,VWS V14.01,2013-08-04 15:18:00,
2013-08-04 11:19:00,74.4,60.5,29.69,WNW,287,0.0,7.0,62,0.00,,FEW042,0.00,947.00,VWS V14.01,2013-08-04 15:19:00,
2013-08-04 11:20:00,74.4,60.5,29.69,WNW,282,0.0,7.0,62,0.00,,FEW042,0.00,947.00,VWS V14.01,2013-08-04 15:20:00,
2013-08-04 11:24:00,74.6,57.9,29.69,NNW,333,0.0,7.0,56,0.00,,FEW042,0.00,1040.00,VWS V14.01,2013-08-04 15:24:00,
2013-08-04 11:25:00,74.6,58.4,29.69,NW,323,0.0,7.0,57,0.00,,FEW042,0.00,1040.00,VWS V14.01,2013-08-04 15:25:00,
2013-08-04 11:29:00,74.4,57.7,29.69,WNW,302,0.0,7.0,56,0.00,,FEW042,0.00,227.00,VWS V14.01,2013-08-04 15:29:00,
2013-08-04 11:30:00,74.2,58.0,29.69,North,0,0.0,7.0,57,0.00,,FEW042,0.00,236.00,VWS V14.01,2013-08-04 15:30:00,
2013-08-04 11:32:00,74.0,58.8,29.69,NW,306,0.0,0.0,59,0.00,,FEW042,0.00,220.00,VWS V14.01,2013-08-04 15:32:00,
2013-08-04 11:34:00,73.9,59.2,29.69,West,277,0.0,2.0,60,0.00,,FEW042,0.00,238.00,VWS V14.01,2013-08-04 15:34:00,
2013-08-04 11:35:00,73.9,59.6,29.69,West,277,0.0,2.0,61,0.00,,FEW042,0.00,238.00,VWS V14.01,2013-08-04 15:35:00,
2013-08-04 11:36:00,73.7,59.4,29.69,West,277,0.0,2.0,61,0.00,,FEW042,0.00,250.00,VWS V14.01,2013-08-04 15:36:00,
2013-08-04 11:38:00,73.5,57.3,29.69,WSW,244,0.0,3.0,57,0.00,,FEW042,0.00,294.00,VWS V14.01,2013-08-04 15:38:00,
2013-08-04 11:39:00,73.5,58.8,29.69,South,191,0.0,3.0,60,0.00,,FEW042,0.00,294.00,VWS V14.01,2013-08-04 15:39:00,
2013-08-04 11:40:00,73.5,60.2,29.69,South,191,0.0,3.0,63,0.00,,FEW042,0.00,294.00,VWS V14.01,2013-08-04 15:40:00,
2013-08-04 11:41:00,73.3,59.0,29.69,WNW,282,0.0,3.0,61,0.00,,FEW042,0.00,271.00,VWS V14.01,2013-08-04 15:41:00,
2013-08-04 11:43:00,73.3,58.6,29.69,WNW,282,0.0,3.0,60,0.00,,FEW042,0.00,260.00,VWS V14.01,2013-08-04 15:43:00,
2013-08-04 11:45:00,73.2,58.0,29.69,NNW,329,0.0,8.0,59,0.00,,FEW042,0.00,260.00,VWS V14.01,2013-08-04 15:45:00,
2013-08-04 11:46:00,73.2,59.0,29.69,NNW,336,2.0,8.0,61,0.00,,FEW042,0.00,260.00,VWS V14.01,2013-08-04 15:46:00,
2013-08-04 11:47:00,73.3,60.0,29.68,NW,320,0.0,8.0,63,0.00,,FEW042,0.00,260.00,VWS V14.01,2013-08-04 15:47:00,
2013-08-04 11:48:00,73.3,60.4,29.68,North,353,5.0,8.0,64,0.00,,FEW042,0.00,1010.00,VWS V14.01,2013-08-04 15:48:00,
2013-08-04 11:50:00,73.5,61.0,29.68,NW,319,0.0,8.0,65,0.00,,FEW042,0.00,1066.00,VWS V14.01,2013-08-04 15:50:00,
2013-08-04 11:51:00,73.7,60.3,29.68,West,271,0.0,8.0,63,0.00,,FEW042,0.00,1066.00,VWS V14.01,2013-08-04 15:51:00,
2013-08-04 11:52:00,74.0,60.6,29.68,West,278,0.0,8.0,63,0.00,,FEW042,0.00,1066.00,VWS V14.01,2013-08-04 15:52:00,
2013-08-04 11:53:00,74.0,60.6,29.68,West,278,0.0,8.0,63,0.00,,FEW042,0.00,1066.00,VWS V14.01,2013-08-04 15:53:00,
2013-08-04 11:55:00,74.4,61.0,29.68,North,3,2.0,8.0,63,0.00,,FEW042,0.00,1066.00,VWS V14.01,2013-08-04 15:55:00,
2013-08-04 11:57:00,74.6,57.9,29.68,West,274,1.0,8.0,56,0.00,,FEW042,0.00,215.00,VWS V14.01,2013-08-04 15:57:00,
2013-08-04 11:59:00,74.6,57.9,29.68,West,280,0.0,8.0,56,0.00,,FEW042,0.00,215.00,VWS V14.01,2013-08-04 15:59:00,
2013-08-04 12:00:00,74.6,57.4,29.68,WNW,299,0.0,8.0,55,0.00,,BKN050,0.00,968.00,VWS V14.01,2013-08-04 16:00:00,
2013-08-04 12:01:00,74.6,59.3,29.68,WNW,282,0.0,8.0,59,0.00,,BKN050,0.00,982.00,VWS V14.01,2013-08-04 16:01:00,
2013-08-04 12:03:00,74.7,59.4,29.68,West,280,0.0,3.0,59,0.00,,BKN050,0.00,1036.00,VWS V14.01,2013-08-04 16:03:00,
2013-08-04 12:04:00,74.9,59.6,29.68,NW,306,0.0,6.0,59,0.00,,BKN050,0.00,1110.00,VWS V14.01,2013-08-04 16:04:00,
2013-08-04 12:05:00,74.9,59.1,29.68,NNE,21,0.0,6.0,58,0.00,,BKN050,0.00,1110.00,VWS V14.01,2013-08-04 16:05:00,
2013-08-04 12:07:00,75.1,58.3,29.68,WNW,287,0.0,6.0,56,0.00,,BKN050,0.00,320.00,VWS V14.01,2013-08-04 16:07:00,
2013-08-04 12:08:00,75.1,58.3,29.68,West,275,0.0,11.0,56,0.00,,BKN050,0.00,246.00,VWS V14.01,2013-08-04 16:08:00,
2013-08-04 12:09:00,75.1,57.8,29.68,WNW,284,0.0,11.0,55,0.00,,BKN050,0.00,246.00,VWS V14.01,2013-08-04 16:09:00,
2013-08-04 12:10:00,75.1,57.8,29.68,West,281,0.0,11.0,55,0.00,,BKN050,0.00,980.00,VWS V14.01,2013-08-04 16:10:00,
2013-08-04 12:11:00,75.1,57.8,29.68,WSW,251,0.0,11.0,55,0.00,,BKN050,0.00,947.00,VWS V14.01,2013-08-04 16:11:00,
2013-08-04 12:13:00,75.1,56.8,29.68,NW,316,0.0,11.0,53,0.00,,BKN050,0.00,936.00,VWS V14.01,2013-08-04 16:13:00,
2013-08-04 12:15:00,75.1,57.3,29.68,West,271,0.0,11.0,54,0.00,,BKN050,0.00,936.00,VWS V14.01,2013-08-04 16:15:00,
2013-08-04 12:16:00,75.3,57.5,29.68,NW,308,4.0,11.0,54,0.00,,BKN050,0.00,936.00,VWS V14.01,2013-08-04 16:16:00,
2013-08-04 12:17:00,75.3,58.0,29.68,NW,311,3.0,11.0,55,0.00,,BKN050,0.00,936.00,VWS V14.01,2013-08-04 16:17:00,
2013-08-04 12:18:00,75.3,58.0,29.68,WNW,282,0.0,11.0,55,0.00,,BKN050,0.00,936.00,VWS V14.01,2013-08-04 16:18:00,
2013-08-04 12:19:00,75.4,59.6,29.68,West,277,0.0,11.0,58,0.00,,BKN050,0.00,936.00,VWS V14.01,2013-08-04 16:19:00,
2013-08-04 12:20:00,75.4,58.1,29.68,West,278,0.0,11.0,55,0.00,,BKN050,0.00,950.00,VWS V14.01,2013-08-04 16:20:00,
2013-08-04 12:21:00,75.4,59.1,29.68,WNW,282,0.0,11.0,57,0.00,,BKN050,0.00,940.00,VWS V14.01,2013-08-04 16:21:00,
2013-08-04 12:22:00,75.6,59.3,29.68,West,281,0.0,11.0,57,0.00,,BKN050,0.00,943.00,VWS V14.01,2013-08-04 16:22:00,
2013-08-04 12:23:00,75.8,60.0,29.68,West,281,0.0,11.0,58,0.00,,BKN050,0.00,948.00,VWS V14.01,2013-08-04 16:23:00,
2013-08-04 12:25:00,76.0,59.2,29.68,WSW,237,0.0,11.0,56,0.00,,BKN050,0.00,1043.00,VWS V14.01,2013-08-04 16:25:00,
2013-08-04 12:27:00,76.1,58.8,29.68,WSW,248,0.0,11.0,55,0.00,,BKN050,0.00,1043.00,VWS V14.01,2013-08-04 16:27:00,
2013-08-04 12:29:00,76.1,57.8,29.68,WNW,284,0.0,11.0,53,0.00,,BKN050,0.00,255.00,VWS V14.01,2013-08-04 16:29:00,
2013-08-04 12:30:00,76.1,58.3,29.68,NW,312,2.0,11.0,54,0.00,,BKN050,0.00,255.00,VWS V14.01,2013-08-04 16:30:00,
2013-08-04 12:31:00,76.1,58.3,29.68,NW,312,2.0,11.0,54,0.00,,BKN050,0.00,255.00,VWS V14.01,2013-08-04 16:31:00,
2013-08-04 12:32:00,76.3,59.5,29.67,North,0,0.0,11.0,56,0.00,,BKN050,0.00,1091.00,VWS V14.01,2013-08-04 16:32:00,
2013-08-04 12:35:00,76.1,57.8,29.67,NW,309,0.0,4.0,53,0.00,,BKN050,0.00,294.00,VWS V14.01,2013-08-04 16:35:00,
2013-08-04 12:36:00,76.0,58.2,29.67,NW,313,0.0,4.0,54,0.00,,BKN050,0.00,257.00,VWS V14.01,2013-08-04 16:36:00,
2013-08-04 12:37:00,76.0,58.7,29.67,NW,320,0.0,4.0,55,0.00,,BKN050,0.00,271.00,VWS V14.01,2013-08-04 16:37:00,
2013-08-04 12:40:00,75.8,57.5,29.67,West,274,6.0,6.0,53,0.00,,BKN050,0.00,271.00,VWS V14.01,2013-08-04 16:40:00,
2013-08-04 12:41:00,75.8,57.5,29.67,SW,232,0.0,6.0,53,0.00,,BKN050,0.00,271.00,VWS V14.01,2013-08-04 16:41:00,
2013-08-04 12:42:00,75.8,57.5,29.67,West,265,5.0,6.0,53,0.00,,BKN050,0.00,271.00,VWS V14.01,2013-08-04 16:42:00,
2013-08-04 12:43:00,75.6,55.7,29.67,WNW,284,5.0,7.0,50,0.00,,BKN050,0.00,362.00,VWS V14.01,2013-08-04 16:43:00,
2013-08-04 12:46:00,75.4,56.6,29.66,WNW,296,2.0,7.0,52,0.00,,BKN050,0.00,477.00,VWS V14.01,2013-08-04 16:46:00,
2013-08-04 12:47:00,75.4,58.6,29.66,West,278,0.0,7.0,56,0.00,,BKN050,0.00,477.00,VWS V14.01,2013-08-04 16:47:00,
2013-08-04 12:48:00,75.4,58.6,29.66,West,278,0.0,7.0,56,0.00,,BKN050,0.00,477.00,VWS V14.01,2013-08-04 16:48:00,
2013-08-04 12:51:00,75.3,57.0,29.66,NNE,14,0.0,7.0,53,0.00,,BKN050,0.00,299.00,VWS V14.01,2013-08-04 16:51:00,
2013-08-04 12:52:00,75.4,59.1,29.66,West,278,0.0,7.0,57,0.00,,BKN050,0.00,1038.00,VWS V14.01,2013-08-04 16:52:00,
2013-08-04 12:53:00,75.4,61.0,29.66,West,278,6.0,7.0,61,0.00,,BKN050,0.00,1038.00,VWS V14.01,2013-08-04 16:53:00,
2013-08-04 12:54:00,75.4,61.0,29.66,West,270,0.0,7.0,61,0.00,,BKN050,0.00,1038.00,VWS V14.01,2013-08-04 16:54:00,
2013-08-04 12:57:00,75.8,58.0,29.66,WNW,288,1.0,7.0,54,0.00,,BKN050,0.00,1040.00,VWS V14.01,2013-08-04 16:57:00,
2013-08-04 12:58:00,75.8,58.0,29.66,NW,304,1.0,7.0,54,0.00,,BKN050,0.00,1040.00,VWS V14.01,2013-08-04 16:58:00,
2013-08-04 12:59:00,75.8,55.3,29.66,West,280,0.0,8.0,49,0.00,,BKN050,0.00,1040.00,VWS V14.01,2013-08-04 16:59:00,
2013-08-04 13:00:00,75.8,55.3,29.66,WNW,282,0.0,8.0,49,0.00,,FEW055,0.00,1040.00,VWS V14.01,2013-08-04 17:00:00,
2013-08-04 13:03:00,75.8,57.5,29.66,NW,309,0.0,3.0,53,0.00,,FEW055,0.00,1040.00,VWS V14.01,2013-08-04 17:03:00,
2013-08-04 13:04:00,76.0,58.2,29.66,NW,311,0.0,3.0,54,0.00,,FEW055,0.00,1040.00,VWS V14.01,2013-08-04 17:04:00,
2013-08-04 13:05:00,76.0,58.2,29.66,WNW,296,5.0,6.0,54,0.00,,FEW055,0.00,1040.00,VWS V14.01,2013-08-04 17:05:00,
2013-08-04 13:08:00,76.1,57.8,29.66,WNW,292,1.0,6.0,53,0.00,,FEW055,0.00,1040.00,VWS V14.01,2013-08-04 17:08:00,
2013-08-04 13:10:00,76.0,57.7,29.66,WSW,239,1.0,6.0,53,0.00,,FEW055,0.00,387.00,VWS V14.01,2013-08-04 17:10:00,
2013-08-04 13:11:00,76.0,57.1,29.66,WNW,292,1.0,6.0,52,0.00,,FEW055,0.00,832.00,VWS V14.01,2013-08-04 17:11:00,
2013-08-04 13:13:00,76.1,58.3,29.66,NNW,330,1.0,8.0,54,0.00,,FEW055,0.00,882.00,VWS V14.01,2013-08-04 17:13:00,
2013-08-04 13:14:00,76.1,58.3,29.66,NW,319,7.0,10.0,54,0.00,,FEW055,0.00,882.00,VWS V14.01,2013-08-04 17:14:00,
2013-08-04 13:15:00,76.1,56.7,29.66,NE,54,0.0,10.0,51,0.00,,FEW055,0.00,417.00,VWS V14.01,2013-08-04 17:15:00,
2013-08-04 13:16:00,76.1,55.6,29.66,NNW,333,0.0,10.0,49,0.00,,FEW055,0.00,456.00,VWS V14.01,2013-08-04 17:16:00,
2013-08-04 13:19:00,76.1,57.2,29.66,WNW,289,6.0,10.0,52,0.00,,FEW055,0.00,456.00,VWS V14.01,2013-08-04 17:19:00,
2013-08-04 13:20:00,76.1,57.8,29.66,NW,315,0.0,10.0,53,0.00,,FEW055,0.00,456.00,VWS V14.01,2013-08-04 17:20:00,
2013-08-04 13:21:00,76.1,57.8,29.66,WNW,296,2.0,10.0,53,0.00,,FEW055,0.00,456.00,VWS V14.01,2013-08-04 17:21:00,
2013-08-04 13:24:00,76.0,56.0,29.66,West,271,1.0,10.0,50,0.00,,FEW055,0.00,477.00,VWS V14.01,2013-08-04 17:24:00,
2013-08-04 13:25:00,76.0,56.0,29.66,West,277,0.0,10.0,50,0.00,,FEW055,0.00,477.00,VWS V14.01,2013-08-04 17:25:00,
2013-08-04 13:27:00,75.8,57.5,29.66,WNW,291,0.0,10.0,53,0.00,,FEW055,0.00,396.00,VWS V14.01,2013-08-04 17:27:00,
2013-08-04 13:29:00,75.8,56.4,29.66,WNW,295,0.0,10.0,51,0.00,,FEW055,0.00,385.00,VWS V14.01,2013-08-04 17:29:00,
2013-08-04 13:30:00,75.8,57.5,29.66,WNW,295,0.0,10.0,53,0.00,,FEW055,0.00,399.00,VWS V14.01,2013-08-04 17:30:00,
2013-08-04 13:31:00,75.6,57.3,29.66,WNW,295,0.0,10.0,53,0.00,,FEW055,0.00,417.00,VWS V14.01,2013-08-04 17:31:00,
2013-08-04 13:32:00,75.6,56.8,29.66,SSE,168,0.0,5.0,52,0.00,,FEW055,0.00,440.00,VWS V14.01,2013-08-04 17:32:00,
2013-08-04 13:34:00,75.4,56.0,29.66,West,281,5.0,10.0,51,0.00,,FEW055,0.00,445.00,VWS V14.01,2013-08-04 17:34:00,
2013-08-04 13:35:00,75.4,56.0,29.66,WNW,288,0.0,10.0,51,0.00,,FEW055,0.00,442.00,VWS V14.01,2013-08-04 17:35:00,
2013-08-04 13:36:00,75.4,54.9,29.66,SW,227,0.0,10.0,49,0.00,,FEW055,0.00,442.00,VWS V14.01,2013-08-04 17:36:00,
2013-08-04 13:37:00,75.4,57.6,29.66,NW,315,7.0,10.0,54,0.00,,FEW055,0.00,1158.00,VWS V14.01,2013-08-04 17:37:00,
2013-08-04 13:40:00,75.4,54.9,29.66,NW,305,0.0,10.0,49,0.00,,FEW055,0.00,1105.00,VWS V14.01,2013-08-04 17:40:00,
2013-08-04 13:41:00,75.4,54.9,29.66,NW,308,0.0,10.0,49,0.00,,FEW055,0.00,1105.00,VWS V14.01,2013-08-04 17:41:00,
2013-08-04 13:42:00,75.4,54.9,29.66,WSW,258,0.0,10.0,49,0.00,,FEW055,0.00,1105.00,VWS V14.01,2013-08-04 17:42:00,
2013-08-04 13:44:00,75.6,57.3,29.66,WNW,289,0.0,10.0,53,0.00,,FEW055,0.00,1105.00,VWS V14.01,2013-08-04 17:44:00,
2013-08-04 13:45:00,75.8,56.9,29.66,WNW,302,1.0,10.0,52,0.00,,FEW055,0.00,994.00,VWS V14.01,2013-08-04 17:45:00,
2013-08-04 13:46:00,75.8,56.9,29.66,SW,226,3.0,10.0,52,0.00,,FEW055,0.00,985.00,VWS V14.01,2013-08-04 17:46:00,
2013-08-04 13:47:00,75.8,56.9,29.66,WNW,302,0.0,10.0,52,0.00,,FEW055,0.00,980.00,VWS V14.01,2013-08-04 17:47:00,
2013-08-04 13:49:00,76.1,56.7,29.66,NW,306,3.0,10.0,51,0.00,,FEW055,0.00,980.00,VWS V14.01,2013-08-04 17:49:00,
2013-08-04 13:51:00,76.3,57.4,29.66,West,265,5.0,11.0,52,0.00,,FEW055,0.00,887.00,VWS V14.01,2013-08-04 17:51:00,
2013-08-04 13:52:00,76.3,55.8,29.66,NW,320,2.0,11.0,49,0.00,,FEW055,0.00,887.00,VWS V14.01,2013-08-04 17:52:00,
2013-08-04 13:54:00,76.5,55.9,29.66,NNE,17,0.0,11.0,49,0.00,,FEW055,0.00,978.00,VWS V14.01,2013-08-04 17:54:00,
2013-08-04 13:56:00,76.5,55.9,29.66,WSW,257,3.0,16.0,49,0.00,,FEW055,0.00,978.00,VWS V14.01,2013-08-04 17:56:00,
2013-08-04 13:57:00,76.7,57.2,29.66,West,280,6.0,16.0,51,0.00,,FEW055,0.00,1063.00,VWS V14.01,2013-08-04 17:57:00,
2013-08-04 13:58:00,76.7,57.2,29.66,NW,325,0.0,16.0,51,0.00,,FEW055,0.00,1063.00,VWS V14.01,2013-08-04 17:58:00,
2013-08-04 13:59:00,76.8,57.9,29.66,West,264,3.0,16.0,52,0.00,,FEW055,0.00,1063.00,VWS V14.01,2013-08-04 17:59:00,
2013-08-04 14:00:00,76.8,56.2,29.65,West,274,6.0,16.0,49,0.00,,OVC050,0.00,475.00,VWS V14.01,2013-08-04 18:00:00,
2013-08-04 14:01:00,76.8,56.2,29.65,WNW,289,0.0,16.0,49,0.00,,SCT080,0.00,475.00,VWS V14.01,2013-08-04 18:01:00,
2013-08-04 14:02:00,76.8,56.2,29.65,WSW,251,0.0,6.0,49,0.00,,SCT080,0.00,475.00,VWS V14.01,2013-08-04 18:02:00,
2013-08-04 14:04:00,76.8,57.9,29.65,WNW,302,5.0,13.0,52,0.00,,SCT080,0.00,475.00,VWS V14.01,2013-08-04 18:04:00,
2013-08-04 14:07:00,77.0,57.5,29.65,West,272,0.0,13.0,51,0.00,,SCT080,0.00,973.00,VWS V14.01,2013-08-04 18:07:00,
2013-08-04 14:08:00,77.0,57.5,29.65,West,270,9.0,13.0,51,0.00,,SCT080,0.00,957.00,VWS V14.01,2013-08-04 18:08:00,
2013-08-04 14:09:00,77.0,57.0,29.65,NNW,336,1.0,13.0,50,0.00,,SCT080,0.00,950.00,VWS V14.01,2013-08-04 18:09:00,
2013-08-04 14:12:00,77.0,56.4,29.65,NNW,328,3.0,14.0,49,0.00,,SCT080,0.00,989.00,VWS V14.01,2013-08-04 18:12:00,
2013-08-04 14:13:00,77.0,56.4,29.65,NNW,328,1.0,14.0,49,0.00,,SCT080,0.00,989.00,VWS V14.01,2013-08-04 18:13:00,
2013-08-04 14:14:00,77.0,57.5,29.65,North,7,3.0,14.0,51,0.00,,SCT080,0.00,1012.00,VWS V14.01,2013-08-04 18:14:00,
2013-08-04 14:15:00,77.0,57.5,29.65,NNW,333,2.0,14.0,51,0.00,,SCT080,0.00,1012.00,VWS V14.01,2013-08-04 18:15:00,
2013-08-04 14:18:00,76.7,55.5,29.66,NW,315,5.0,17.0,48,0.00,,SCT080,0.00,267.00,VWS V14.01,2013-08-04 18:18:00,
2013-08-04 14:19:00,76.5,56.5,29.66,NNW,347,6.0,17.0,50,0.00,,SCT080,0.00,267.00,VWS V14.01,2013-08-04 18:19:00,
2013-08-04 14:20:00,76.3,57.4,29.66,West,274,2.0,17.0,52,0.00,,SCT080,0.00,241.00,VWS V14.01,2013-08-04 18:20:00,
2013-08-04 14:23:00,75.8,56.9,29.66,NNW,333,6.0,17.0,52,0.00,,SCT080,0.00,201.00,VWS V14.01,2013-08-04 18:23:00,
2013-08-04 14:24:00,75.4,56.6,29.66,NW,309,1.0,17.0,52,0.00,,SCT080,0.00,197.00,VWS V14.01,2013-08-04 18:24:00,
2013-08-04 14:25:00,75.3,57.0,29.66,WNW,295,12.0,17.0,53,0.00,,SCT080,0.00,204.00,VWS V14.01,2013-08-04 18:25:00,
2013-08-04 14:27:00,74.7,56.5,29.66,North,0,2.0,17.0,53,0.00,,SCT080,0.00,230.00,VWS V14.01,2013-08-04 18:27:00,
2013-08-04 14:28:00,74.2,56.0,29.66,West,281,1.0,17.0,53,0.00,,SCT080,0.00,274.00,VWS V14.01,2013-08-04 18:28:00,
2013-08-04 14:29:00,74.0,55.8,29.66,West,274,2.0,17.0,53,0.00,,SCT080,0.00,303.00,VWS V14.01,2013-08-04 18:29:00,
2013-08-04 14:30:00,73.7,56.0,29.66,North,359,2.0,17.0,54,0.00,,SCT080,0.00,331.00,VWS V14.01,2013-08-04 18:30:00,
2013-08-04 14:32:00,73.2,56.1,29.66,West,272,4.0,8.0,55,0.00,,SCT080,0.00,438.00,VWS V14.01,2013-08-04 18:32:00,
2013-08-04 14:33:00,73.2,56.6,29.66,NW,312,9.0,9.0,56,0.00,,SCT080,0.00,426.00,VWS V14.01,2013-08-04 18:33:00,
2013-08-04 14:34:00,73.0,56.4,29.66,NW,315,1.0,9.0,56,0.00,,SCT080,0.00,415.00,VWS V14.01,2013-08-04 18:34:00,
2013-08-04 14:36:00,72.7,56.1,29.66,NW,305,5.0,9.0,56,0.00,,SCT080,0.00,412.00,VWS V14.01,2013-08-04 18:36:00,
2013-08-04 14:38:00,72.3,56.7,29.66,NNW,330,3.0,11.0,58,0.00,,SCT080,0.00,378.00,VWS V14.01,2013-08-04 18:38:00,
2013-08-04 14:39:00,72.1,56.5,29.66,NNE,23,0.0,11.0,58,0.00,,SCT080,0.00,285.00,VWS V14.01,2013-08-04 18:39:00,
2013-08-04 14:40:00,72.1,56.5,29.66,NNE,23,0.0,11.0,58,0.00,,SCT080,0.00,285.00,VWS V14.01,2013-08-04 18:40:00,
2013-08-04 14:41:00,72.0,56.9,29.66,North,354,0.0,11.0,59,0.00,,SCT080,0.00,327.00,VWS V14.01,2013-08-04 18:41:00,
2013-08-04 14:43:00,71.8,56.7,29.66,NNW,344,0.0,11.0,59,0.00,,SCT080,0.00,327.00,VWS V14.01,2013-08-04 18:43:00,
2013-08-04 14:44:00,71.8,58.5,29.66,North,1,2.0,11.0,63,0.00,,SCT080,0.00,899.00,VWS V14.01,2013-08-04 18:44:00,
2013-08-04 14:45:00,71.8,58.5,29.66,NW,319,6.0,11.0,63,0.00,,SCT080,0.00,890.00,VWS V14.01,2013-08-04 18:45:00,
2013-08-04 14:46:00,71.8,58.1,29.67,NNW,337,1.0,11.0,62,0.00,,SCT080,0.00,880.00,VWS V14.01,2013-08-04 18:46:00,
2013-08-04 14:48:00,72.0,58.7,29.67,NNW,333,4.0,12.0,63,0.00,,SCT080,0.00,862.00,VWS V14.01,2013-08-04 18:48:00,
2013-08-04 14:50:00,72.1,56.5,29.67,West,277,13.0,13.0,58,0.00,,SCT080,0.00,845.00,VWS V14.01,2013-08-04 18:50:00,
2013-08-04 14:52:00,72.1,57.0,29.67,NW,305,2.0,13.0,59,0.00,,SCT080,0.00,830.00,VWS V14.01,2013-08-04 18:52:00,
2013-08-04 14:54:00,72.3,55.2,29.67,NW,315,0.0,15.0,55,0.00,,SCT080,0.00,809.00,VWS V14.01,2013-08-04 18:54:00,
2013-08-04 14:55:00,72.5,57.4,29.67,WNW,288,7.0,15.0,59,0.00,,SCT080,0.00,804.00,VWS V14.01,2013-08-04 18:55:00,
2013-08-04 14:57:00,72.7,56.6,29.67,North,354,12.0,16.0,57,0.00,,SCT080,0.00,799.00,VWS V14.01,2013-08-04 18:57:00,
2013-08-04 14:58:00,72.8,56.2,29.67,West,280,4.0,16.0,56,0.00,,SCT080,0.00,802.00,VWS V14.01,2013-08-04 18:58:00,
2013-08-04 14:59:00,73.0,55.4,29.67,NW,316,8.0,16.0,54,0.00,,SCT080,0.00,804.00,VWS V14.01,2013-08-04 18:59:00,
2013-08-04 15:00:00,73.2,55.6,29.67,North,0,7.0,16.0,54,0.00,,FEW090,0.00,801.00,VWS V14.01,2013-08-04 19:00:00,
2013-08-04 15:02:00,73.2,54.5,29.67,NNW,343,11.0,16.0,52,0.00,,FEW090,0.00,801.00,VWS V14.01,2013-08-04 19:02:00,
2013-08-04 15:03:00,73.3,55.2,29.67,NNE,28,0.0,11.0,53,0.00,,FEW090,0.00,795.00,VWS V14.01,2013-08-04 19:03:00,
2013-08-04 15:04:00,73.3,55.2,29.67,West,271,1.0,11.0,53,0.00,,FEW090,0.00,794.00,VWS V14.01,2013-08-04 19:04:00,
2013-08-04 15:07:00,73.5,55.3,29.67,NW,326,0.0,11.0,53,0.00,,FEW090,0.00,790.00,VWS V14.01,2013-08-04 19:07:00,
2013-08-04 15:08:00,73.7,55.5,29.67,NW,305,12.0,12.0,53,0.00,,FEW090,0.00,792.00,VWS V14.01,2013-08-04 19:08:00,
2013-08-04 15:09:00,73.7,54.5,29.67,NNW,342,0.0,12.0,51,0.00,,FEW090,0.00,792.00,VWS V14.01,2013-08-04 19:09:00,
2013-08-04 15:12:00,73.9,55.2,29.67,WNW,301,1.0,16.0,52,0.00,,FEW090,0.00,794.00,VWS V14.01,2013-08-04 19:12:00,
2013-08-04 15:13:00,73.9,55.2,29.67,WSW,246,7.0,16.0,52,0.00,,FEW090,0.00,794.00,VWS V14.01,2013-08-04 19:13:00,
2013-08-04 15:14:00,73.9,55.2,29.67,West,270,0.0,16.0,52,0.00,,FEW090,0.00,794.00,VWS V14.01,2013-08-04 19:14:00,
2013-08-04 15:17:00,73.9,55.2,29.67,NNW,330,10.0,16.0,52,0.00,,FEW090,0.00,794.00,VWS V14.01,2013-08-04 19:17:00,
2013-08-04 15:18:00,73.9,55.2,29.67,NNW,330,5.0,16.0,52,0.00,,FEW090,0.00,838.00,VWS V14.01,2013-08-04 19:18:00,
2013-08-04 15:19:00,74.0,55.3,29.67,NNW,329,6.0,16.0,52,0.00,,FEW090,0.00,838.00,VWS V14.01,2013-08-04 19:19:00,
2013-08-04 15:21:00,74.0,55.8,29.67,NNE,32,3.0,16.0,53,0.00,,FEW090,0.00,880.00,VWS V14.01,2013-08-04 19:21:00,
2013-08-04 15:22:00,74.2,56.0,29.67,WNW,288,1.0,16.0,53,0.00,,FEW090,0.00,880.00,VWS V14.01,2013-08-04 19:22:00,
2013-08-04 15:23:00,74.2,57.0,29.67,WNW,285,1.0,16.0,55,0.00,,FEW090,0.00,880.00,VWS V14.01,2013-08-04 19:23:00,
2013-08-04 15:24:00,74.4,56.7,29.67,WNW,294,1.0,16.0,54,0.00,,FEW090,0.00,866.00,VWS V14.01,2013-08-04 19:24:00,
2013-08-04 15:25:00,74.4,56.7,29.67,WNW,294,1.0,16.0,54,0.00,,FEW090,0.00,866.00,VWS V14.01,2013-08-04 19:25:00,
2013-08-04 15:26:00,74.4,56.7,29.67,NW,309,1.0,16.0,54,0.00,,FEW090,0.00,866.00,VWS V14.01,2013-08-04 19:26:00,
2013-08-04 15:27:00,74.6,55.8,29.67,NNW,339,0.0,16.0,52,0.00,,FEW090,0.00,866.00,VWS V14.01,2013-08-04 19:27:00,
2013-08-04 15:28:00,74.6,55.8,29.67,NNW,339,0.0,16.0,52,0.00,,FEW090,0.00,866.00,VWS V14.01,2013-08-04 19:28:00,
2013-08-04 15:29:00,74.6,57.4,29.67,NNW,340,0.0,16.0,55,0.00,,FEW090,0.00,823.00,VWS V14.01,2013-08-04 19:29:00,
2013-08-04 15:30:00,74.6,56.4,29.67,WNW,284,2.0,16.0,53,0.00,,FEW090,0.00,823.00,VWS V14.01,2013-08-04 19:30:00,
2013-08-04 15:31:00,74.6,56.9,29.67,WNW,301,3.0,16.0,54,0.00,,FEW090,0.00,823.00,VWS V14.01,2013-08-04 19:31:00,
2013-08-04 15:33:00,74.7,56.5,29.66,NW,306,0.0,1.0,53,0.00,,FEW090,0.00,823.00,VWS V14.01,2013-08-04 19:33:00,
2013-08-04 15:34:00,74.7,55.9,29.66,NW,320,0.0,1.0,52,0.00,,FEW090,0.00,322.00,VWS V14.01,2013-08-04 19:34:00,
2013-08-04 15:35:00,74.7,57.0,29.66,WNW,291,1.0,1.0,54,0.00,,FEW090,0.00,322.00,VWS V14.01,2013-08-04 19:35:00,
2013-08-04 15:36:00,74.6,56.9,29.66,WNW,291,0.0,1.0,54,0.00,,FEW090,0.00,245.00,VWS V14.01,2013-08-04 19:36:00,
2013-08-04 15:38:00,74.6,56.9,29.66,NNW,347,6.0,12.0,54,0.00,,FEW090,0.00,222.00,VWS V14.01,2013-08-04 19:38:00,
2013-08-04 15:40:00,74.2,56.5,29.66,WNW,296,6.0,12.0,54,0.00,,FEW090,0.00,230.00,VWS V14.01,2013-08-04 19:40:00,
2013-08-04 15:41:00,73.9,56.7,29.66,WNW,299,0.0,12.0,55,0.00,,FEW090,0.00,238.00,VWS V14.01,2013-08-04 19:41:00,
2013-08-04 15:42:00,73.9,56.7,29.66,WNW,299,0.0,12.0,55,0.00,,FEW090,0.00,257.00,VWS V14.01,2013-08-04 19:42:00,
2013-08-04 15:44:00,73.9,57.7,29.66,WNW,294,0.0,12.0,57,0.00,,FEW090,0.00,243.00,VWS V14.01,2013-08-04 19:44:00,
2013-08-04 15:45:00,73.7,57.0,29.66,WNW,287,0.0,12.0,56,0.00,,FEW090,0.00,245.00,VWS V14.01,2013-08-04 19:45:00,
2013-08-04 15:47:00,73.5,56.9,29.66,NW,308,0.0,12.0,56,0.00,,FEW090,0.00,234.00,VWS V14.01,2013-08-04 19:47:00,
2013-08-04 15:49:00,73.3,56.2,29.66,West,277,0.0,12.0,55,0.00,,FEW090,0.00,234.00,VWS V14.01,2013-08-04 19:49:00,
2013-08-04 15:50:00,73.2,56.1,29.66,NNW,332,1.0,12.0,55,0.00,,FEW090,0.00,276.00,VWS V14.01,2013-08-04 19:50:00,
2013-08-04 15:52:00,73.0,56.4,29.66,NNW,333,0.0,12.0,56,0.00,,FEW090,0.00,514.00,VWS V14.01,2013-08-04 19:52:00,
2013-08-04 15:53:00,73.0,55.4,29.66,NW,306,1.0,12.0,54,0.00,,FEW090,0.00,514.00,VWS V14.01,2013-08-04 19:53:00,
2013-08-04 15:54:00,72.8,55.7,29.66,NW,305,0.0,12.0,55,0.00,,FEW090,0.00,514.00,VWS V14.01,2013-08-04 19:54:00,
2013-08-04 15:56:00,72.8,54.7,29.66,WNW,294,2.0,12.0,53,0.00,,FEW090,0.00,827.00,VWS V14.01,2013-08-04 19:56:00,
2013-08-04 15:57:00,72.8,55.7,29.66,West,272,0.0,12.0,55,0.00,,FEW090,0.00,809.00,VWS V14.01,2013-08-04 19:57:00,
2013-08-04 15:59:00,73.0,55.9,29.66,WNW,284,5.0,12.0,55,0.00,,FEW090,0.00,688.00,VWS V14.01,2013-08-04 19:59:00,
2013-08-04 16:00:00,73.0,54.9,29.66,WSW,258,0.0,12.0,53,0.00,,FEW090,0.00,690.00,VWS V14.01,2013-08-04 20:00:00,
2013-08-04 16:01:00,73.0,54.4,29.66,WNW,294,2.0,12.0,52,0.00,,CLR,0.00,690.00,VWS V14.01,2013-08-04 20:01:00,
2013-08-04 16:03:00,73.2,55.1,29.65,WNW,282,0.0,5.0,53,0.00,,CLR,0.00,690.00,VWS V14.01,2013-08-04 20:03:00,
2013-08-04 16:05:00,73.2,56.1,29.65,WNW,302,0.0,5.0,55,0.00,,CLR,0.00,259.00,VWS V14.01,2013-08-04 20:05:00,
2013-08-04 16:06:00,73.3,55.2,29.65,NNE,27,0.0,6.0,53,0.00,,CLR,0.00,274.00,VWS V14.01,2013-08-04 20:06:00,
2013-08-04 16:10:00,73.3,55.2,29.65,NNW,329,0.0,7.0,53,0.00,,CLR,0.00,354.00,VWS V14.01,2013-08-04 20:10:00,
2013-08-04 16:11:00,73.2,54.5,29.65,WNW,298,1.0,7.0,52,0.00,,CLR,0.00,179.00,VWS V14.01,2013-08-04 20:11:00,
2013-08-04 16:15:00,73.0,54.9,29.65,NNW,330,2.0,7.0,53,0.00,,CLR,0.00,313.00,VWS V14.01,2013-08-04 20:15:00,
2013-08-04 16:16:00,73.0,54.9,29.66,North,357,0.0,7.0,53,0.00,,CLR,0.00,350.00,VWS V14.01,2013-08-04 20:16:00,
2013-08-04 16:17:00,72.8,54.7,29.66,WNW,302,1.0,7.0,53,0.00,,CLR,0.00,348.00,VWS V14.01,2013-08-04 20:17:00,
2013-08-04 16:20:00,72.8,56.2,29.66,NNW,343,2.0,7.0,56,0.00,,CLR,0.00,384.00,VWS V14.01,2013-08-04 20:20:00,
2013-08-04 16:22:00,72.7,55.6,29.66,WNW,284,6.0,11.0,55,0.00,,CLR,0.00,412.00,VWS V14.01,2013-08-04 20:22:00,
2013-08-04 16:23:00,72.7,55.6,29.66,WNW,299,1.0,11.0,55,0.00,,CLR,0.00,412.00,VWS V14.01,2013-08-04 20:23:00,
2013-08-04 16:25:00,72.5,55.9,29.66,WNW,302,0.0,11.0,56,0.00,,CLR,0.00,359.00,VWS V14.01,2013-08-04 20:25:00,
2013-08-04 16:27:00,72.5,55.4,29.66,NW,305,0.0,11.0,55,0.00,,CLR,0.00,276.00,VWS V14.01,2013-08-04 20:27:00,
2013-08-04 16:28:00,72.3,55.7,29.66,NW,309,0.0,11.0,56,0.00,,CLR,0.00,276.00,VWS V14.01,2013-08-04 20:28:00,
2013-08-04 16:30:00,72.1,55.1,29.66,WNW,301,0.0,11.0,55,0.00,,OVC050,0.00,355.00,VWS V14.01,2013-08-04 20:30:00,
2013-08-04 16:32:00,72.1,55.1,29.66,WNW,301,0.0,11.0,55,0.00,,CLR,0.00,355.00,VWS V14.01,2013-08-04 20:32:00,
2013-08-04 16:33:00,72.1,56.0,29.66,WNW,291,0.0,2.0,57,0.00,,CLR,0.00,357.00,VWS V14.01,2013-08-04 20:33:00,
2013-08-04 16:37:00,72.0,56.4,29.66,NNE,13,4.0,7.0,58,0.00,,CLR,0.00,552.00,VWS V14.01,2013-08-04 20:37:00,
2013-08-04 16:38:00,71.8,55.3,29.66,NNE,18,0.0,7.0,56,0.00,,CLR,0.00,558.00,VWS V14.01,2013-08-04 20:38:00,
2013-08-04 16:39:00,72.0,56.0,29.66,NW,304,0.0,7.0,57,0.00,,CLR,0.00,581.00,VWS V14.01,2013-08-04 20:39:00,
2013-08-04 16:42:00,72.0,56.4,29.66,NNW,330,1.0,7.0,58,0.00,,CLR,0.00,619.00,VWS V14.01,2013-08-04 20:42:00,
2013-08-04 16:43:00,72.0,56.4,29.66,NNE,13,2.0,7.0,58,0.00,,CLR,0.00,619.00,VWS V14.01,2013-08-04 20:43:00,
2013-08-04 16:44:00,72.1,55.6,29.66,North,0,0.0,7.0,56,0.00,,CLR,0.00,607.00,VWS V14.01,2013-08-04 20:44:00,
2013-08-04 16:47:00,72.3,55.7,29.67,NNW,340,8.0,8.0,56,0.00,,CLR,0.00,579.00,VWS V14.01,2013-08-04 20:47:00,
2013-08-04 16:48:00,72.3,55.7,29.67,NW,316,1.0,7.0,56,0.00,,CLR,0.00,579.00,VWS V14.01,2013-08-04 20:48:00,
2013-08-04 16:49:00,72.3,54.7,29.67,NW,326,7.0,11.0,54,0.00,,CLR,0.00,537.00,VWS V14.01,2013-08-04 20:49:00,
2013-08-04 16:50:00,72.3,54.7,29.67,NNW,342,1.0,11.0,54,0.00,,CLR,0.00,530.00,VWS V14.01,2013-08-04 20:50:00,
2013-08-04 16:53:00,72.3,55.2,29.67,WNW,287,0.0,11.0,55,0.00,,CLR,0.00,375.00,VWS V14.01,2013-08-04 20:53:00,
2013-08-04 16:55:00,72.3,55.7,29.67,WNW,295,3.0,11.0,56,0.00,,CLR,0.00,389.00,VWS V14.01,2013-08-04 20:55:00,
2013-08-04 16:58:00,72.3,55.2,29.67,NNW,332,0.0,11.0,55,0.00,,CLR,0.00,579.00,VWS V14.01,2013-08-04 20:58:00,
2013-08-04 16:59:00,72.3,55.7,29.67,WNW,287,2.0,11.0,56,0.00,,CLR,0.00,579.00,VWS V14.01,2013-08-04 20:59:00,
2013-08-04 17:00:00,72.3,55.2,29.67,West,265,8.0,11.0,55,0.00,,CLR,0.00,579.00,VWS V14.01,2013-08-04 21:00:00,
2013-08-04 17:03:00,72.5,55.9,29.67,West,263,2.0,7.0,56,0.00,,SCT050,0.00,568.00,VWS V14.01,2013-08-04 21:03:00,
2013-08-04 17:04:00,72.5,54.9,29.67,North,354,6.0,7.0,54,0.00,,SCT050,0.00,83.00,VWS V14.01,2013-08-04 21:04:00,
2013-08-04 17:05:00,72.5,55.4,29.67,NNW,339,1.0,7.0,55,0.00,,SCT050,0.00,90.00,VWS V14.01,2013-08-04 21:05:00,
2013-08-04 17:09:00,72.3,56.7,29.67,North,359,2.0,7.0,58,0.00,,SCT050,0.00,51.00,VWS V14.01,2013-08-04 21:09:00,
2013-08-04 17:10:00,72.1,56.0,29.67,North,7,0.0,7.0,57,0.00,,SCT050,0.00,46.00,VWS V14.01,2013-08-04 21:10:00,
2013-08-04 17:11:00,72.1,56.5,29.67,North,7,0.0,7.0,58,0.00,,SCT050,0.00,39.00,VWS V14.01,2013-08-04 21:11:00,
2013-08-04 17:14:00,71.6,56.1,29.67,North,0,7.0,13.0,58,0.00,,SCT050,0.00,33.00,VWS V14.01,2013-08-04 21:14:00,
2013-08-04 17:15:00,71.5,56.4,29.67,North,3,0.0,13.0,59,0.00,,SCT050,0.00,39.00,VWS V14.01,2013-08-04 21:15:00,
2013-08-04 17:16:00,71.5,56.4,29.67,North,3,0.0,13.0,59,0.00,,SCT050,0.00,46.00,VWS V14.01,2013-08-04 21:16:00,
2013-08-04 17:17:00,71.3,56.7,29.68,NW,320,0.0,13.0,60,0.00,,SCT050,0.00,55.00,VWS V14.01,2013-08-04 21:17:00,
2013-08-04 17:19:00,70.8,55.3,29.68,NNW,344,0.0,13.0,58,0.00,,SCT050,0.00,120.00,VWS V14.01,2013-08-04 21:19:00,
2013-08-04 17:21:00,70.6,55.6,29.68,North,0,6.0,13.0,59,0.00,,SCT050,0.00,568.00,VWS V14.01,2013-08-04 21:21:00,
2013-08-04 17:22:00,70.6,56.1,29.68,North,350,0.0,13.0,60,0.00,,SCT050,0.00,568.00,VWS V14.01,2013-08-04 21:22:00,
2013-08-04 17:25:00,70.3,54.4,29.68,NE,34,5.0,13.0,57,0.00,,SCT050,0.00,572.00,VWS V14.01,2013-08-04 21:25:00,
2013-08-04 17:27:00,70.1,53.7,29.68,NW,320,6.0,13.0,56,0.00,,SCT050,0.00,558.00,VWS V14.01,2013-08-04 21:27:00,
2013-08-04 17:28:00,70.1,54.7,29.68,NNW,340,0.0,13.0,58,0.00,,SCT050,0.00,545.00,VWS V14.01,2013-08-04 21:28:00,
2013-08-04 17:30:00,70.1,55.1,29.68,NW,313,5.0,13.0,59,0.00,,SCT050,0.00,531.00,VWS V14.01,2013-08-04 21:30:00,
2013-08-04 17:32:00,70.1,54.7,29.68,North,0,3.0,3.0,58,0.00,,SCT050,0.00,487.00,VWS V14.01,2013-08-04 21:32:00,
2013-08-04 17:33:00,70.1,54.7,29.68,NW,322,4.0,5.0,58,0.00,,SCT050,0.00,487.00,VWS V14.01,2013-08-04 21:33:00,
2013-08-04 17:34:00,70.1,54.2,29.68,NW,323,6.0,7.0,57,0.00,,SCT050,0.00,479.00,VWS V14.01,2013-08-04 21:34:00,
2013-08-04 17:35:00,70.1,54.7,29.68,North,0,0.0,7.0,58,0.00,,SCT050,0.00,466.00,VWS V14.01,2013-08-04 21:35:00,
2013-08-04 17:37:00,70.1,54.2,29.68,NNW,328,1.0,7.0,57,0.00,,SCT050,0.00,447.00,VWS V14.01,2013-08-04 21:37:00,
2013-08-04 17:38:00,69.9,54.0,29.68,NNE,21,0.0,7.0,57,0.00,,SCT050,0.00,442.00,VWS V14.01,2013-08-04 21:38:00,
2013-08-04 17:39:00,69.9,54.0,29.68,NNW,333,5.0,7.0,57,0.00,,SCT050,0.00,442.00,VWS V14.01,2013-08-04 21:39:00,
2013-08-04 17:40:00,69.9,54.5,29.68,NW,319,1.0,7.0,58,0.00,,SCT050,0.00,433.00,VWS V14.01,2013-08-04 21:40:00,
2013-08-04 17:42:00,69.9,54.9,29.68,WNW,288,0.0,7.0,59,0.00,,SCT050,0.00,413.00,VWS V14.01,2013-08-04 21:42:00,
2013-08-04 17:43:00,69.9,54.9,29.68,WNW,288,0.0,7.0,59,0.00,,SCT050,0.00,410.00,VWS V14.01,2013-08-04 21:43:00,
2013-08-04 17:44:00,69.9,54.9,29.68,North,0,0.0,7.0,59,0.00,,SCT050,0.00,410.00,VWS V14.01,2013-08-04 21:44:00,
2013-08-04 17:45:00,69.9,54.9,29.68,NNE,27,0.0,7.0,59,0.00,,SCT050,0.00,405.00,VWS V14.01,2013-08-04 21:45:00,
2013-08-04 17:48:00,69.8,55.3,29.69,North,354,0.0,7.0,60,0.00,,SCT050,0.00,398.00,VWS V14.01,2013-08-04 21:48:00,
2013-08-04 17:49:00,69.8,55.3,29.69,North,4,0.0,7.0,60,0.00,,SCT050,0.00,398.00,VWS V14.01,2013-08-04 21:49:00,
2013-08-04 17:50:00,69.8,55.3,29.69,North,4,0.0,7.0,60,0.00,,SCT050,0.00,398.00,VWS V14.01,2013-08-04 21:50:00,
2013-08-04 17:53:00,69.8,55.3,29.69,NNW,332,1.0,7.0,60,0.00,,SCT050,0.00,40.00,VWS V14.01,2013-08-04 21:53:00,
2013-08-04 17:54:00,69.6,55.1,29.69,WNW,301,0.0,7.0,60,0.00,,SCT050,0.00,39.00,VWS V14.01,2013-08-04 21:54:00,
2013-08-04 17:55:00,69.6,55.1,29.69,WNW,301,0.0,7.0,60,0.00,,SCT050,0.00,39.00,VWS V14.01,2013-08-04 21:55:00,
2013-08-04 17:58:00,69.6,55.1,29.69,NW,320,0.0,7.0,60,0.00,,SCT050,0.00,37.00,VWS V14.01,2013-08-04 21:58:00,
2013-08-04 18:00:00,69.4,54.5,29.69,NNW,335,3.0,7.0,59,0.00,,CLR,0.00,39.00,VWS V14.01,2013-08-04 22:00:00,
2013-08-04 18:01:00,69.4,54.9,29.70,North,0,1.0,7.0,60,0.00,,CLR,0.00,42.00,VWS V14.01,2013-08-04 22:01:00,
2013-08-04 18:04:00,69.3,55.7,29.70,North,0,0.0,2.0,62,0.00,,CLR,0.00,44.00,VWS V14.01,2013-08-04 22:04:00,
2013-08-04 18:06:00,69.1,54.2,29.70,NNW,347,0.0,2.0,59,0.00,,CLR,0.00,44.00,VWS V14.01,2013-08-04 22:06:00,
2013-08-04 18:07:00,68.9,54.0,29.70,North,4,0.0,3.0,59,0.00,,CLR,0.00,44.00,VWS V14.01,2013-08-04 22:07:00,
2013-08-04 18:09:00,68.8,54.4,29.70,NW,325,3.0,6.0,60,0.00,,CLR,0.00,33.00,VWS V14.01,2013-08-04 22:09:00,
2013-08-04 18:11:00,68.8,54.4,29.70,NW,319,0.0,6.0,60,0.00,,CLR,0.00,33.00,VWS V14.01,2013-08-04 22:11:00,
2013-08-04 18:12:00,68.6,54.6,29.70,North,0,0.0,6.0,61,0.00,,CLR,0.00,26.00,VWS V14.01,2013-08-04 22:12:00,
2013-08-04 18:13:00,68.6,54.6,29.70,North,359,5.0,6.0,61,0.00,,CLR,0.00,26.00,VWS V14.01,2013-08-04 22:13:00,
2013-08-04 18:14:00,68.4,53.1,29.70,NNW,344,2.0,6.0,58,0.00,,CLR,0.00,26.00,VWS V14.01,2013-08-04 22:14:00,
2013-08-04 18:16:00,68.4,53.5,29.70,North,356,0.0,6.0,59,0.00,,CLR,0.00,28.00,VWS V14.01,2013-08-04 22:16:00,
2013-08-04 18:18:00,68.3,53.4,29.70,NW,306,0.0,6.0,59,0.00,,CLR,0.00,28.00,VWS V14.01,2013-08-04 22:18:00,
2013-08-04 18:20:00,68.3,53.9,29.70,NW,306,0.0,6.0,60,0.00,,CLR,0.00,28.00,VWS V14.01,2013-08-04 22:20:00,
2013-08-04 18:21:00,68.1,53.7,29.70,North,0,0.0,6.0,60,0.00,,CLR,0.00,23.00,VWS V14.01,2013-08-04 22:21:00,
2013-08-04 18:22:00,68.1,52.8,29.70,North,0,0.0,6.0,58,0.00,,CLR,0.00,23.00,VWS V14.01,2013-08-04 22:22:00,
2013-08-04 18:23:00,67.9,52.6,29.70,North,0,0.0,6.0,58,0.00,,CLR,0.00,23.00,VWS V14.01,2013-08-04 22:23:00,
2013-08-04 18:25:00,67.9,53.5,29.70,North,357,0.0,6.0,60,0.00,,CLR,0.00,28.00,VWS V14.01,2013-08-04 22:25:00,
2013-08-04 18:26:00,67.8,53.9,29.70,NNW,336,0.0,6.0,61,0.00,,CLR,0.00,28.00,VWS V14.01,2013-08-04 22:26:00,
2013-08-04 18:27:00,67.8,53.9,29.70,NNW,336,0.0,6.0,61,0.00,,CLR,0.00,28.00,VWS V14.01,2013-08-04 22:27:00,
2013-08-04 18:28:00,67.8,53.4,29.70,NNW,336,0.0,6.0,60,0.00,,CLR,0.00,28.00,VWS V14.01,2013-08-04 22:28:00,
2013-08-04 18:30:00,67.6,53.2,29.70,NNW,346,2.0,6.0,60,0.00,,CLR,0.00,28.00,VWS V14.01,2013-08-04 22:30:00,
2013-08-04 18:31:00,67.6,53.2,29.69,NNW,344,0.0,6.0,60,0.00,,CLR,0.00,28.00,VWS V14.01,2013-08-04 22:31:00,
2013-08-04 18:32:00,67.6,53.2,29.69,NNW,344,0.0,0.0,60,0.00,,CLR,0.00,28.00,VWS V14.01,2013-08-04 22:32:00,
2013-08-04 18:33:00,67.4,53.5,29.69,NNW,344,0.0,0.0,61,0.00,,CLR,0.00,28.00,VWS V14.01,2013-08-04 22:33:00,
2013-08-04 18:34:00,67.4,53.9,29.69,NNW,343,2.0,2.0,62,0.00,,CLR,0.00,28.00,VWS V14.01,2013-08-04 22:34:00,
2013-08-04 18:35:00,67.4,53.0,29.69,NNW,343,0.0,2.0,60,0.00,,CLR,0.00,28.00,VWS V14.01,2013-08-04 22:35:00,
2013-08-04 18:37:00,67.3,53.0,29.69,NNW,343,0.0,2.0,60,0.00,,CLR,0.00,33.00,VWS V14.01,2013-08-04 22:37:00,
2013-08-04 18:38:00,67.3,53.8,29.69,NNW,343,0.0,2.0,62,0.00,,CLR,0.00,33.00,VWS V14.01,2013-08-04 22:38:00,
2013-08-04 18:39:00,67.3,53.8,29.69,NNW,343,0.0,2.0,62,0.00,,CLR,0.00,33.00,VWS V14.01,2013-08-04 22:39:00,
2013-08-04 18:41:00,67.1,53.7,29.69,North,357,0.0,2.0,62,0.00,,CLR,0.00,26.00,VWS V14.01,2013-08-04 22:41:00,
2013-08-04 18:42:00,67.1,54.1,29.69,North,359,2.0,2.0,63,0.00,,CLR,0.00,26.00,VWS V14.01,2013-08-04 22:42:00,
2013-08-04 18:43:00,67.1,53.7,29.69,North,0,0.0,2.0,62,0.00,,CLR,0.00,26.00,VWS V14.01,2013-08-04 22:43:00,
2013-08-04 18:44:00,67.1,53.7,29.69,North,0,0.0,2.0,62,0.00,,CLR,0.00,26.00,VWS V14.01,2013-08-04 22:44:00,
2013-08-04 18:47:00,66.9,53.5,29.70,North,359,0.0,2.0,62,0.00,,CLR,0.00,21.00,VWS V14.01,2013-08-04 22:47:00,
2013-08-04 18:49:00,66.8,53.4,29.70,North,359,0.0,2.0,62,0.00,,CLR,0.00,21.00,VWS V14.01,2013-08-04 22:49:00,
2013-08-04 18:50:00,66.8,53.8,29.70,North,359,0.0,2.0,63,0.00,,CLR,0.00,18.00,VWS V14.01,2013-08-04 22:50:00,
2013-08-04 18:52:00,66.6,53.6,29.70,NNW,342,0.0,3.0,63,0.00,,CLR,0.00,18.00,VWS V14.01,2013-08-04 22:52:00,
2013-08-04 18:53:00,66.6,53.6,29.70,NNW,342,0.0,3.0,63,0.00,,CLR,0.00,18.00,VWS V14.01,2013-08-04 22:53:00,
2013-08-04 18:54:00,66.6,53.6,29.70,NNW,342,0.0,3.0,63,0.00,,CLR,0.00,18.00,VWS V14.01,2013-08-04 22:54:00,
2013-08-04 18:55:00,66.4,53.9,29.70,NNW,342,0.0,3.0,64,0.00,,CLR,0.00,18.00,VWS V14.01,2013-08-04 22:55:00,
2013-08-04 18:57:00,66.4,53.9,29.70,NNW,343,0.0,3.0,64,0.00,,CLR,0.00,18.00,VWS V14.01,2013-08-04 22:57:00,
2013-08-04 18:58:00,66.4,53.9,29.70,NNW,343,0.0,3.0,64,0.00,,CLR,0.00,18.00,VWS V14.01,2013-08-04 22:58:00,
2013-08-04 18:59:00,66.3,53.8,29.70,NNW,343,0.0,3.0,64,0.00,,CLR,0.00,18.00,VWS V14.01,2013-08-04 22:59:00,
2013-08-04 19:00:00,66.3,53.8,29.70,NNW,343,0.0,3.0,64,0.00,,CLR,0.00,18.00,VWS V14.01,2013-08-04 23:00:00,
2013-08-04 19:03:00,66.3,53.8,29.70,NNW,343,0.0,0.0,64,0.00,,CLR,0.00,18.00,VWS V14.01,2013-08-04 23:03:00,
2013-08-04 19:05:00,66.1,53.6,29.70,NNW,343,0.0,0.0,64,0.00,,CLR,0.00,18.00,VWS V14.01,2013-08-04 23:05:00,
2013-08-04 19:06:00,66.1,54.0,29.70,NNW,343,0.0,0.0,65,0.00,,CLR,0.00,18.00,VWS V14.01,2013-08-04 23:06:00,
2013-08-04 19:08:00,66.0,54.3,29.70,NNW,343,0.0,0.0,66,0.00,,CLR,0.00,18.00,VWS V14.01,2013-08-04 23:08:00,
2013-08-04 19:10:00,66.0,54.3,29.70,NNW,343,0.0,0.0,66,0.00,,CLR,0.00,16.00,VWS V14.01,2013-08-04 23:10:00,
2013-08-04 19:11:00,66.0,54.3,29.70,NNW,343,0.0,0.0,66,0.00,,CLR,0.00,16.00,VWS V14.01,2013-08-04 23:11:00,
2013-08-04 19:13:00,65.8,54.1,29.70,NNW,343,0.0,0.0,66,0.00,,CLR,0.00,16.00,VWS V14.01,2013-08-04 23:13:00,
2013-08-04 19:14:00,65.8,54.5,29.70,NNW,343,0.0,0.0,67,0.00,,CLR,0.00,16.00,VWS V14.01,2013-08-04 23:14:00,
2013-08-04 19:15:00,65.8,54.5,29.70,NNW,343,0.0,0.0,67,0.00,,CLR,0.00,16.00,VWS V14.01,2013-08-04 23:15:00,
2013-08-04 19:16:00,65.6,54.8,29.70,NNW,343,0.0,0.0,68,0.00,,CLR,0.00,16.00,VWS V14.01,2013-08-04 23:16:00,
2013-08-04 19:18:00,65.6,54.8,29.70,NNW,343,0.0,0.0,68,0.00,,CLR,0.00,14.00,VWS V14.01,2013-08-04 23:18:00,
2013-08-04 19:19:00,65.6,54.8,29.70,NNW,343,0.0,0.0,68,0.00,,CLR,0.00,14.00,VWS V14.01,2013-08-04 23:19:00,
2013-08-04 19:21:00,65.5,54.7,29.70,NNW,343,0.0,0.0,68,0.00,,CLR,0.00,14.00,VWS V14.01,2013-08-04 23:21:00,
2013-08-04 19:22:00,65.5,54.7,29.70,NNW,343,0.0,0.0,68,0.00,,CLR,0.00,14.00,VWS V14.01,2013-08-04 23:22:00,
2013-08-04 19:23:00,65.3,54.5,29.70,NNW,343,0.0,0.0,68,0.00,,CLR,0.00,14.00,VWS V14.01,2013-08-04 23:23:00,
2013-08-04 19:24:00,65.3,54.9,29.70,NNW,343,0.0,0.0,69,0.00,,CLR,0.00,14.00,VWS V14.01,2013-08-04 23:24:00,
2013-08-04 19:26:00,65.2,54.8,29.70,NNW,343,0.0,0.0,69,0.00,,CLR,0.00,14.00,VWS V14.01,2013-08-04 23:26:00,
2013-08-04 19:27:00,65.2,54.8,29.70,NNW,343,0.0,0.0,69,0.00,,CLR,0.00,12.00,VWS V14.01,2013-08-04 23:27:00,
2013-08-04 19:29:00,65.0,54.6,29.70,NNW,343,0.0,0.0,69,0.00,,CLR,0.00,12.00,VWS V14.01,2013-08-04 23:29:00,
2013-08-04 19:30:00,65.0,54.6,29.70,NNW,343,0.0,0.0,69,0.00,,CLR,0.00,12.00,VWS V14.01,2013-08-04 23:30:00,
2013-08-04 19:31:00,65.0,54.6,29.71,NNW,340,0.0,0.0,69,0.00,,CLR,0.00,12.00,VWS V14.01,2013-08-04 23:31:00,
2013-08-04 19:33:00,64.8,54.4,29.71,NNW,340,0.0,0.0,69,0.00,,CLR,0.00,12.00,VWS V14.01,2013-08-04 23:33:00,
2013-08-04 19:34:00,64.8,54.8,29.71,NNW,340,0.0,0.0,70,0.00,,CLR,0.00,12.00,VWS V14.01,2013-08-04 23:34:00,
2013-08-04 19:35:00,64.7,54.7,29.71,NNW,340,0.0,0.0,70,0.00,,CLR,0.00,12.00,VWS V14.01,2013-08-04 23:35:00,
2013-08-04 19:36:00,64.7,54.3,29.71,NNW,340,0.0,0.0,69,0.00,,CLR,0.00,5.00,VWS V14.01,2013-08-04 23:36:00,
2013-08-04 19:38:00,64.5,54.5,29.71,NNW,340,0.0,0.0,70,0.00,,CLR,0.00,5.00,VWS V14.01,2013-08-04 23:38:00,
2013-08-04 19:39:00,64.5,54.5,29.71,NNW,340,0.0,0.0,70,0.00,,CLR,0.00,5.00,VWS V14.01,2013-08-04 23:39:00,
2013-08-04 19:40:00,64.5,54.5,29.71,NNW,340,0.0,0.0,70,0.00,,CLR,0.00,5.00,VWS V14.01,2013-08-04 23:40:00,
2013-08-04 19:42:00,64.3,54.3,29.71,NNW,340,0.0,0.0,70,0.00,,CLR,0.00,5.00,VWS V14.01,2013-08-04 23:42:00,
2013-08-04 19:43:00,64.3,54.3,29.71,NNW,340,0.0,0.0,70,0.00,,CLR,0.00,0.00,VWS V14.01,2013-08-04 23:43:00,
2013-08-04 19:44:00,64.3,54.7,29.71,NNW,340,0.0,0.0,71,0.00,,CLR,0.00,0.00,VWS V14.01,2013-08-04 23:44:00,
2013-08-04 19:45:00,64.2,54.6,29.71,NNW,340,0.0,0.0,71,0.00,,CLR,0.00,0.00,VWS V14.01,2013-08-04 23:45:00,
2013-08-04 19:47:00,64.0,54.0,29.72,NNW,340,0.0,0.0,70,0.00,,CLR,0.00,0.00,VWS V14.01,2013-08-04 23:47:00,
2013-08-04 19:48:00,64.0,54.0,29.72,NNW,340,0.0,0.0,70,0.00,,CLR,0.00,0.00,VWS V14.01,2013-08-04 23:48:00,
2013-08-04 19:50:00,63.9,53.9,29.72,NNW,340,0.0,0.0,70,0.00,,CLR,0.00,0.00,VWS V14.01,2013-08-04 23:50:00,
2013-08-04 19:52:00,63.7,53.7,29.72,NNW,340,0.0,0.0,70,0.00,,CLR,0.00,0.00,VWS V14.01,2013-08-04 23:52:00,
2013-08-04 19:53:00,63.7,53.7,29.72,NNW,340,0.0,0.0,70,0.00,,CLR,0.00,0.00,VWS V14.01,2013-08-04 23:53:00,
2013-08-04 19:54:00,63.7,53.7,29.72,NNW,340,0.0,0.0,70,0.00,,CLR,0.00,0.00,VWS V14.01,2013-08-04 23:54:00,
2013-08-04 19:55:00,63.7,53.7,29.72,NW,325,0.0,1.0,70,0.00,,CLR,0.00,0.00,VWS V14.01,2013-08-04 23:55:00,
2013-08-04 19:56:00,63.5,53.5,29.72,NNW,328,0.0,1.0,70,0.00,,CLR,0.00,0.00,VWS V14.01,2013-08-04 23:56:00,
2013-08-04 19:58:00,63.5,53.5,29.72,NNW,328,0.0,1.0,70,0.00,,CLR,0.00,0.00,VWS V14.01,2013-08-04 23:58:00,
2013-08-04 19:59:00,63.4,53.5,29.72,North,353,0.0,1.0,70,0.00,,CLR,0.00,0.00,VWS V14.01,2013-08-04 23:59:00,
2013-08-04 20:00:00,63.2,53.3,29.73,NNW,340,0.0,1.0,70,0.00,,OVC050,0.00,0.00,VWS V14.01,2013-08-05 00:00:00,
2013-08-04 20:01:00,63.4,53.5,29.72,North,349,0.0,1.0,70,0.00,,CLR,0.00,0.00,VWS V14.01,2013-08-05 00:01:00,
2013-08-04 20:02:00,63.2,53.3,29.73,NNW,340,0.0,0.0,70,0.00,,CLR,0.00,0.00,VWS V14.01,2013-08-05 00:02:00,
2013-08-04 20:03:00,63.2,53.3,29.73,NNW,340,0.0,0.0,70,0.00,,CLR,0.00,0.00,VWS V14.01,2013-08-05 00:03:00,
2013-08-04 20:04:00,63.1,53.2,29.73,NNW,342,0.0,0.0,70,0.00,,CLR,0.00,0.00,VWS V14.01,2013-08-05 00:04:00,
2013-08-04 20:05:00,63.1,53.2,29.73,NNW,342,0.0,0.0,70,0.00,,CLR,0.00,0.00,VWS V14.01,2013-08-05 00:05:00,
2013-08-04 20:06:00,63.1,53.2,29.73,NNW,342,0.0,0.0,70,0.00,,CLR,0.00,0.00,VWS V14.01,2013-08-05 00:06:00,
2013-08-04 20:08:00,62.9,53.0,29.73,SW,236,0.0,0.0,70,0.00,,CLR,0.00,0.00,VWS V14.01,2013-08-05 00:08:00,
2013-08-04 20:10:00,62.7,52.8,29.73,WNW,287,0.0,0.0,70,0.00,,CLR,0.00,0.00,VWS V14.01,2013-08-05 00:10:00,
2013-08-04 20:11:00,62.7,52.8,29.73,WNW,288,0.0,0.0,70,0.00,,CLR,0.00,0.00,VWS V14.01,2013-08-05 00:11:00,
2013-08-04 20:13:00,62.6,52.7,29.73,NW,309,0.0,0.0,70,0.00,,CLR,0.00,0.00,VWS V14.01,2013-08-05 00:13:00,
2013-08-04 20:15:00,62.6,53.1,29.73,NW,304,0.0,0.0,71,0.00,,CLR,0.00,0.00,VWS V14.01,2013-08-05 00:15:00,
2013-08-04 20:17:00,62.4,52.9,29.72,NW,308,0.0,1.0,71,0.00,,CLR,0.00,0.00,VWS V14.01,2013-08-05 00:17:00,
2013-08-04 20:18:00,62.4,52.5,29.72,NW,308,0.0,1.0,70,0.00,,CLR,0.00,0.00,VWS V14.01,2013-08-05 00:18:00,
2013-08-04 20:20:00,62.3,52.8,29.72,NW,308,0.0,1.0,71,0.00,,CLR,0.00,0.00,VWS V14.01,2013-08-05 00:20:00,
2013-08-04 20:21:00,62.3,52.8,29.72,NW,305,0.0,1.0,71,0.00,,CLR,0.00,0.00,VWS V14.01,2013-08-05 00:21:00,
2013-08-04 20:22:00,62.3,52.8,29.72,NW,308,0.0,1.0,71,0.00,,CLR,0.00,0.00,VWS V14.01,2013-08-05 00:22:00,
2013-08-04 20:23:00,62.1,52.6,29.72,NW,306,0.0,1.0,71,0.00,,CLR,0.00,0.00,VWS V14.01,2013-08-05 00:23:00,
2013-08-04 20:25:00,62.1,52.6,29.72,NW,306,0.0,1.0,71,0.00,,CLR,0.00,0.00,VWS V14.01,2013-08-05 00:25:00,
2013-08-04 20:26:00,62.1,52.6,29.72,NW,306,0.0,1.0,71,0.00,,CLR,0.00,0.00,VWS V14.01,2013-08-05 00:26:00,
2013-08-04 20:27:00,62.1,52.6,29.72,NW,306,0.0,1.0,71,0.00,,CLR,0.00,0.00,VWS V14.01,2013-08-05 00:27:00,
2013-08-04 20:29:00,62.0,52.5,29.72,NW,306,0.0,1.0,71,0.00,,CLR,0.00,0.00,VWS V14.01,2013-08-05 00:29:00,
2013-08-04 20:30:00,62.0,52.5,29.72,WNW,301,0.0,1.0,71,0.00,,CLR,0.00,0.00,VWS V14.01,2013-08-05 00:30:00,
2013-08-04 20:31:00,62.0,52.5,29.72,WNW,301,0.0,1.0,71,0.00,,CLR,0.00,0.00,VWS V14.01,2013-08-05 00:31:00,
2013-08-04 20:32:00,62.0,52.5,29.72,WNW,301,0.0,0.0,71,0.00,,CLR,0.00,0.00,VWS V14.01,2013-08-05 00:32:00,
2013-08-04 20:33:00,61.8,52.3,29.72,WNW,289,0.0,0.0,71,0.00,,CLR,0.00,0.00,VWS V14.01,2013-08-05 00:33:00,
2013-08-04 20:35:00,61.8,52.7,29.72,WNW,302,0.0,0.0,72,0.00,,CLR,0.00,0.00,VWS V14.01,2013-08-05 00:35:00,
2013-08-04 20:36:00,61.8,52.7,29.72,WNW,302,0.0,0.0,72,0.00,,CLR,0.00,0.00,VWS V14.01,2013-08-05 00:36:00,
2013-08-04 20:37:00,61.6,52.5,29.72,WNW,302,0.0,0.0,72,0.00,,CLR,0.00,0.00,VWS V14.01,2013-08-05 00:37:00,
2013-08-04 20:38:00,61.6,52.5,29.72,WNW,302,0.0,0.0,72,0.00,,CLR,0.00,0.00,VWS V14.01,2013-08-05 00:38:00,
2013-08-04 20:40:00,61.6,52.5,29.72,WNW,302,0.0,0.0,72,0.00,,CLR,0.00,0.00,VWS V14.01,2013-08-05 00:40:00,
2013-08-04 20:42:00,61.5,52.4,29.72,WNW,294,0.0,0.0,72,0.00,,CLR,0.00,0.00,VWS V14.01,2013-08-05 00:42:00,
2013-08-04 20:43:00,61.5,52.4,29.72,WNW,298,0.0,0.0,72,0.00,,CLR,0.00,0.00,VWS V14.01,2013-08-05 00:43:00,
2013-08-04 20:44:00,61.5,52.4,29.72,WNW,298,0.0,0.0,72,0.00,,CLR,0.00,0.00,VWS V14.01,2013-08-05 00:44:00,
2013-08-04 20:45:00,61.3,52.2,29.72,WNW,298,0.0,0.0,72,0.00,,CLR,0.00,0.00,VWS V14.01,2013-08-05 00:45:00,
2013-08-04 20:47:00,61.3,52.2,29.72,WNW,298,0.0,0.0,72,0.00,,CLR,0.00,0.00,VWS V14.01,2013-08-05 00:47:00,
2013-08-04 20:49:00,61.3,52.2,29.72,WNW,298,0.0,0.0,72,0.00,,CLR,0.00,0.00,VWS V14.01,2013-08-05 00:49:00,
2013-08-04 20:50:00,61.3,52.2,29.72,WNW,298,0.0,0.0,72,0.00,,CLR,0.00,0.00,VWS V14.01,2013-08-05 00:50:00,
2013-08-04 20:53:00,61.2,52.5,29.72,WNW,298,0.0,0.0,73,0.00,,CLR,0.00,0.00,VWS V14.01,2013-08-05 00:53:00,
2013-08-04 20:55:00,61.2,52.5,29.72,NW,305,0.0,0.0,73,0.00,,CLR,0.00,0.00,VWS V14.01,2013-08-05 00:55:00,
2013-08-04 20:58:00,61.0,52.3,29.72,NNW,333,0.0,0.0,73,0.00,,CLR,0.00,0.00,VWS V14.01,2013-08-05 00:58:00,
2013-08-04 20:59:00,61.0,51.9,29.72,NNW,333,0.0,0.0,72,0.00,,CLR,0.00,0.00,VWS V14.01,2013-08-05 00:59:00,
2013-08-04 21:00:00,60.9,51.8,29.72,NNW,332,0.0,0.0,72,0.00,,CLR,0.00,0.00,VWS V14.01,2013-08-05 01:00:00,
2013-08-04 21:03:00,60.9,51.8,29.73,NNW,332,0.0,0.0,72,0.00,,CLR,0.00,0.00,VWS V14.01,2013-08-05 01:03:00,
2013-08-04 21:04:00,60.7,52.0,29.73,NNW,329,3.0,3.0,73,0.00,,CLR,0.00,0.00,VWS V14.01,2013-08-05 01:04:00,
2013-08-04 21:05:00,60.7,51.6,29.73,NNW,328,0.0,3.0,72,0.00,,CLR,0.00,0.00,VWS V14.01,2013-08-05 01:05:00,
2013-08-04 21:06:00,60.7,51.6,29.73,NNW,328,0.0,3.0,72,0.00,,CLR,0.00,0.00,VWS V14.01,2013-08-05 01:06:00,
2013-08-04 21:08:00,60.7,52.0,29.73,NW,326,0.0,3.0,73,0.00,,CLR,0.00,0.00,VWS V14.01,2013-08-05 01:08:00,
2013-08-04 21:10:00,60.5,51.8,29.73,NW,326,0.0,3.0,73,0.00,,CLR,0.00,0.00,VWS V14.01,2013-08-05 01:10:00,
2013-08-04 21:11:00,60.5,51.8,29.73,NNW,328,0.0,3.0,73,0.00,,CLR,0.00,0.00,VWS V14.01,2013-08-05 01:11:00,
2013-08-04 21:13:00,60.5,51.8,29.73,NNW,328,0.0,3.0,73,0.00,,CLR,0.00,0.00,VWS V14.01,2013-08-05 01:13:00,
2013-08-04 21:15:00,60.5,52.2,29.73,NNW,337,0.0,3.0,74,0.00,,CLR,0.00,0.00,VWS V14.01,2013-08-05 01:15:00,
2013-08-04 21:16:00,60.4,52.1,29.74,NNW,328,0.0,3.0,74,0.00,,CLR,0.00,0.00,VWS V14.01,2013-08-05 01:16:00,
2013-08-04 21:18:00,60.4,52.1,29.74,NNW,340,2.0,3.0,74,0.00,,CLR,0.00,0.00,VWS V14.01,2013-08-05 01:18:00,
2013-08-04 21:20:00,60.4,52.1,29.74,NNW,333,0.0,3.0,74,0.00,,CLR,0.00,0.00,VWS V14.01,2013-08-05 01:20:00,
2013-08-04 21:21:00,60.2,51.9,29.74,NNW,333,0.0,3.0,74,0.00,,CLR,0.00,0.00,VWS V14.01,2013-08-05 01:21:00,
2013-08-04 21:22:00,60.2,51.9,29.74,NNW,333,0.0,3.0,74,0.00,,CLR,0.00,0.00,VWS V14.01,2013-08-05 01:22:00,
2013-08-04 21:24:00,60.2,52.3,29.74,NNW,332,0.0,3.0,75,0.00,,CLR,0.00,0.00,VWS V14.01,2013-08-05 01:24:00,
2013-08-04 21:25:00,60.2,52.3,29.74,NNW,332,0.0,3.0,75,0.00,,CLR,0.00,0.00,VWS V14.01,2013-08-05 01:25:00,
2013-08-04 21:27:00,60.1,52.2,29.74,NNW,332,0.0,3.0,75,0.00,,CLR,0.00,0.00,VWS V14.01,2013-08-05 01:27:00,
2013-08-04 21:29:00,60.1,52.2,29.74,NNW,333,0.0,3.0,75,0.00,,CLR,0.00,0.00,VWS V14.01,2013-08-05 01:29:00,
2013-08-04 21:30:00,60.1,52.2,29.74,NNW,333,0.0,3.0,75,0.00,,CLR,0.00,0.00,VWS V14.01,2013-08-05 01:30:00,
2013-08-04 21:32:00,60.1,52.5,29.74,NNW,333,0.0,3.0,76,0.00,,CLR,0.00,0.00,VWS V14.01,2013-08-05 01:32:00,
2013-08-04 21:33:00,60.1,52.5,29.74,NNW,333,0.0,0.0,76,0.00,,CLR,0.00,0.00,VWS V14.01,2013-08-05 01:33:00,
2013-08-04 21:35:00,59.9,52.7,29.74,NNW,333,0.0,0.0,77,0.00,,CLR,0.00,0.00,VWS V14.01,2013-08-05 01:35:00,
2013-08-04 21:36:00,59.9,52.7,29.74,NNW,332,0.0,0.0,77,0.00,,CLR,0.00,0.00,VWS V14.01,2013-08-05 01:36:00,
2013-08-04 21:37:00,59.9,52.7,29.74,NNW,333,0.0,0.0,77,0.00,,CLR,0.00,0.00,VWS V14.01,2013-08-05 01:37:00,
2013-08-04 21:39:00,59.9,52.7,29.74,NNW,344,0.0,0.0,77,0.00,,CLR,0.00,0.00,VWS V14.01,2013-08-05 01:39:00,
2013-08-04 21:41:00,59.8,52.2,29.74,NNW,344,0.0,0.0,76,0.00,,CLR,0.00,0.00,VWS V14.01,2013-08-05 01:41:00,
2013-08-04 21:42:00,59.8,52.2,29.74,NNW,344,0.0,0.0,76,0.00,,CLR,0.00,0.00,VWS V14.01,2013-08-05 01:42:00,
2013-08-04 21:43:00,59.6,52.0,29.74,NNW,344,0.0,1.0,76,0.00,,CLR,0.00,0.00,VWS V14.01,2013-08-05 01:43:00,
2013-08-04 21:44:00,59.6,52.0,29.74,NNW,344,0.0,1.0,76,0.00,,CLR,0.00,0.00,VWS V14.01,2013-08-05 01:44:00,
2013-08-04 21:46:00,59.6,52.0,29.74,NW,306,0.0,1.0,76,0.00,,CLR,0.00,0.00,VWS V14.01,2013-08-05 01:46:00,
2013-08-04 21:47:00,59.5,51.9,29.74,NW,325,0.0,1.0,76,0.00,,CLR,0.00,0.00,VWS V14.01,2013-08-05 01:47:00,
2013-08-04 21:48:00,59.5,51.9,29.74,NW,319,0.0,4.0,76,0.00,,CLR,0.00,0.00,VWS V14.01,2013-08-05 01:48:00,
2013-08-04 21:50:00,59.5,51.9,29.74,NW,318,0.0,4.0,76,0.00,,CLR,0.00,0.00,VWS V14.01,2013-08-05 01:50:00,
2013-08-04 21:51:00,59.3,51.8,29.74,NW,318,0.0,4.0,76,0.00,,CLR,0.00,0.00,VWS V14.01,2013-08-05 01:51:00,
2013-08-04 21:52:00,59.3,51.8,29.74,NW,322,0.0,4.0,76,0.00,,CLR,0.00,0.00,VWS V14.01,2013-08-05 01:52:00,
2013-08-04 21:54:00,59.3,51.8,29.74,West,263,0.0,6.0,76,0.00,,CLR,0.00,0.00,VWS V14.01,2013-08-05 01:54:00,
2013-08-04 21:55:00,59.2,51.3,29.74,WNW,298,0.0,6.0,75,0.00,,CLR,0.00,0.00,VWS V14.01,2013-08-05 01:55:00,
2013-08-04 21:56:00,59.2,51.3,29.74,WNW,298,0.0,6.0,75,0.00,,CLR,0.00,0.00,VWS V14.01,2013-08-05 01:56:00,
2013-08-04 21:57:00,59.2,51.3,29.74,NW,304,0.0,6.0,75,0.00,,CLR,0.00,0.00,VWS V14.01,2013-08-05 01:57:00,
2013-08-04 21:59:00,59.2,51.3,29.74,NW,312,0.0,6.0,75,0.00,,CLR,0.00,0.00,VWS V14.01,2013-08-05 01:59:00,
2013-08-04 22:00:00,59.2,51.7,29.75,NNW,329,1.0,6.0,76,0.00,,OVC050,0.00,0.00,VWS V14.01,2013-08-05 02:00:00,
2013-08-04 22:01:00,59.2,51.7,29.74,NW,316,0.0,6.0,76,0.00,,CLR,0.00,0.00,VWS V14.01,2013-08-05 02:01:00,
2013-08-04 22:03:00,59.0,51.5,29.75,NW,313,3.0,5.0,76,0.00,,CLR,0.00,0.00,VWS V14.01,2013-08-05 02:03:00,
2013-08-04 22:04:00,59.0,51.5,29.75,NW,312,0.0,5.0,76,0.00,,CLR,0.00,0.00,VWS V14.01,2013-08-05 02:04:00,
2013-08-04 22:06:00,59.0,51.1,29.75,NW,309,1.0,5.0,75,0.00,,CLR,0.00,0.00,VWS V14.01,2013-08-05 02:06:00,
2013-08-04 22:07:00,59.0,51.1,29.75,NNW,328,0.0,5.0,75,0.00,,CLR,0.00,0.00,VWS V14.01,2013-08-05 02:07:00,
2013-08-04 22:08:00,58.9,51.0,29.75,NNW,328,0.0,5.0,75,0.00,,CLR,0.00,0.00,VWS V14.01,2013-08-05 02:08:00,
2013-08-04 22:09:00,58.9,51.0,29.75,NNW,328,0.0,5.0,75,0.00,,CLR,0.00,0.00,VWS V14.01,2013-08-05 02:09:00,
2013-08-04 22:12:00,58.9,51.0,29.75,NW,312,0.0,5.0,75,0.00,,CLR,0.00,0.00,VWS V14.01,2013-08-05 02:12:00,
2013-08-04 22:14:00,58.9,51.0,29.75,NW,312,0.0,5.0,75,0.00,,CLR,0.00,0.00,VWS V14.01,2013-08-05 02:14:00,
2013-08-04 22:15:00,58.9,51.0,29.75,NW,312,0.0,5.0,75,0.00,,CLR,0.00,0.00,VWS V14.01,2013-08-05 02:15:00,
2013-08-04 22:17:00,58.9,50.6,29.75,NW,312,0.0,5.0,74,0.00,,CLR,0.00,0.00,VWS V14.01,2013-08-05 02:17:00,
2013-08-04 22:19:00,58.7,50.8,29.75,NW,312,0.0,5.0,75,0.00,,CLR,0.00,0.00,VWS V14.01,2013-08-05 02:19:00,
2013-08-04 22:20:00,58.7,50.8,29.75,NW,312,0.0,5.0,75,0.00,,CLR,0.00,0.00,VWS V14.01,2013-08-05 02:20:00,
2013-08-04 22:22:00,58.7,50.8,29.75,NW,312,0.0,5.0,75,0.00,,CLR,0.00,0.00,VWS V14.01,2013-08-05 02:22:00,
2013-08-04 22:25:00,58.7,50.8,29.75,NW,312,0.0,5.0,75,0.00,,CLR,0.00,0.00,VWS V14.01,2013-08-05 02:25:00,
2013-08-04 22:26:00,58.7,50.8,29.75,NW,312,0.0,5.0,75,0.00,,CLR,0.00,0.00,VWS V14.01,2013-08-05 02:26:00,
2013-08-04 22:27:00,58.7,50.8,29.75,NW,312,0.0,5.0,75,0.00,,CLR,0.00,0.00,VWS V14.01,2013-08-05 02:27:00,
2013-08-04 22:28:00,58.6,50.7,29.75,NW,312,0.0,5.0,75,0.00,,CLR,0.00,0.00,VWS V14.01,2013-08-05 02:28:00,
2013-08-04 22:30:00,58.6,50.7,29.75,NW,312,0.0,5.0,75,0.00,,OVC050,0.00,0.00,VWS V14.01,2013-08-05 02:30:00,
2013-08-04 22:31:00,58.6,50.7,29.75,NW,312,0.0,5.0,75,0.00,,CLR,0.00,0.00,VWS V14.01,2013-08-05 02:31:00,
2013-08-04 22:32:00,58.6,50.7,29.75,NW,312,0.0,5.0,75,0.00,,CLR,0.00,0.00,VWS V14.01,2013-08-05 02:32:00,
2013-08-04 22:33:00,58.6,50.7,29.75,NW,312,0.0,0.0,75,0.00,,CLR,0.00,0.00,VWS V14.01,2013-08-05 02:33:00,
2013-08-04 22:37:00,58.4,50.9,29.75,NW,312,0.0,0.0,76,0.00,,CLR,0.00,0.00,VWS V14.01,2013-08-05 02:37:00,
2013-08-04 22:38:00,58.4,50.9,29.75,NW,312,0.0,0.0,76,0.00,,CLR,0.00,0.00,VWS V14.01,2013-08-05 02:38:00,
2013-08-04 22:42:00,58.3,50.8,29.75,NW,305,0.0,3.0,76,0.00,,CLR,0.00,0.00,VWS V14.01,2013-08-05 02:42:00,
2013-08-04 22:43:00,58.3,50.8,29.75,NW,305,0.0,3.0,76,0.00,,CLR,0.00,0.00,VWS V14.01,2013-08-05 02:43:00,
2013-08-04 22:44:00,58.3,50.8,29.75,NW,305,0.0,3.0,76,0.00,,CLR,0.00,0.00,VWS V14.01,2013-08-05 02:44:00,
2013-08-04 22:47:00,58.3,50.8,29.75,NW,309,0.0,3.0,76,0.00,,CLR,0.00,0.00,VWS V14.01,2013-08-05 02:47:00,
2013-08-04 22:48:00,58.3,50.8,29.75,NW,309,0.0,3.0,76,0.00,,CLR,0.00,0.00,VWS V14.01,2013-08-05 02:48:00,
2013-08-04 22:49:00,58.3,50.8,29.75,NW,309,0.0,3.0,76,0.00,,CLR,0.00,0.00,VWS V14.01,2013-08-05 02:49:00,
2013-08-04 22:50:00,58.1,50.6,29.75,NW,309,0.0,3.0,76,0.00,,CLR,0.00,0.00,VWS V14.01,2013-08-05 02:50:00,
2013-08-04 22:52:00,58.1,50.6,29.75,NW,309,0.0,3.0,76,0.00,,CLR,0.00,0.00,VWS V14.01,2013-08-05 02:52:00,
2013-08-04 22:53:00,58.1,50.6,29.75,NW,309,0.0,3.0,76,0.00,,CLR,0.00,0.00,VWS V14.01,2013-08-05 02:53:00,
2013-08-04 22:54:00,58.1,50.6,29.75,NW,309,0.0,3.0,76,0.00,,CLR,0.00,0.00,VWS V14.01,2013-08-05 02:54:00,
2013-08-04 22:55:00,58.1,50.6,29.75,NW,309,0.0,3.0,76,0.00,,CLR,0.00,0.00,VWS V14.01,2013-08-05 02:55:00,
2013-08-04 22:59:00,58.0,50.8,29.75,NW,309,0.0,3.0,77,0.00,,CLR,0.00,0.00,VWS V14.01,2013-08-05 02:59:00,
2013-08-04 23:00:00,58.0,50.8,29.75,NW,309,0.0,3.0,77,0.00,,CLR,0.00,0.00,VWS V14.01,2013-08-05 03:00:00,
2013-08-04 23:04:00,58.0,50.8,29.75,NW,309,0.0,0.0,77,0.00,,CLR,0.00,0.00,VWS V14.01,2013-08-05 03:04:00,
2013-08-04 23:05:00,57.8,50.7,29.75,NW,309,0.0,0.0,77,0.00,,CLR,0.00,0.00,VWS V14.01,2013-08-05 03:05:00,
2013-08-04 23:06:00,57.8,51.0,29.75,NW,309,0.0,0.0,78,0.00,,CLR,0.00,0.00,VWS V14.01,2013-08-05 03:06:00,
2013-08-04 23:10:00,57.6,50.8,29.75,WNW,295,0.0,1.0,78,0.00,,CLR,0.00,0.00,VWS V14.01,2013-08-05 03:10:00,
2013-08-04 23:11:00,57.6,50.8,29.75,WNW,296,0.0,1.0,78,0.00,,CLR,0.00,0.00,VWS V14.01,2013-08-05 03:11:00,
2013-08-04 23:12:00,57.6,50.8,29.75,WNW,294,0.0,5.0,78,0.00,,CLR,0.00,0.00,VWS V14.01,2013-08-05 03:12:00,
2013-08-04 23:15:00,57.6,50.8,29.75,WNW,294,0.0,5.0,78,0.00,,CLR,0.00,0.00,VWS V14.01,2013-08-05 03:15:00,
2013-08-04 23:16:00,57.6,50.8,29.75,WNW,296,0.0,5.0,78,0.00,,CLR,0.00,0.00,VWS V14.01,2013-08-05 03:16:00,
2013-08-04 23:17:00,57.6,50.8,29.75,WNW,296,0.0,5.0,78,0.00,,CLR,0.00,0.00,VWS V14.01,2013-08-05 03:17:00,
2013-08-04 23:20:00,57.5,50.7,29.75,NW,323,0.0,5.0,78,0.00,,CLR,0.00,0.00,VWS V14.01,2013-08-05 03:20:00,
2013-08-04 23:21:00,57.5,50.7,29.75,NW,325,0.0,5.0,78,0.00,,CLR,0.00,0.00,VWS V14.01,2013-08-05 03:21:00,
2013-08-04 23:22:00,57.5,50.7,29.75,NW,323,0.0,5.0,78,0.00,,CLR,0.00,0.00,VWS V14.01,2013-08-05 03:22:00,
2013-08-04 23:25:00,57.5,50.7,29.75,NNW,340,0.0,5.0,78,0.00,,CLR,0.00,0.00,VWS V14.01,2013-08-05 03:25:00,
2013-08-04 23:26:00,57.5,51.0,29.75,NNW,335,0.0,5.0,79,0.00,,CLR,0.00,0.00,VWS V14.01,2013-08-05 03:26:00,
2013-08-04 23:27:00,57.5,51.0,29.75,NNW,332,0.0,5.0,79,0.00,,CLR,0.00,0.00,VWS V14.01,2013-08-05 03:27:00,
2013-08-04 23:28:00,57.5,51.0,29.75,NNW,332,0.0,5.0,79,0.00,,CLR,0.00,0.00,VWS V14.01,2013-08-05 03:28:00,
2013-08-04 23:30:00,57.5,50.7,29.75,NNW,332,0.0,5.0,78,0.00,,OVC050,0.00,0.00,VWS V14.01,2013-08-05 03:30:00,
2013-08-04 23:31:00,57.5,50.7,29.75,NNW,332,0.0,5.0,78,0.00,,CLR,0.00,0.00,VWS V14.01,2013-08-05 03:31:00,
2013-08-04 23:32:00,57.5,50.7,29.75,NNW,332,0.0,5.0,78,0.00,,CLR,0.00,0.00,VWS V14.01,2013-08-05 03:32:00,
2013-08-04 23:33:00,57.5,51.0,29.75,NNW,332,0.0,0.0,79,0.00,,CLR,0.00,0.00,VWS V14.01,2013-08-05 03:33:00,
2013-08-04 23:37:00,57.5,50.7,29.75,NNW,330,0.0,0.0,78,0.00,,CLR,0.00,0.00,VWS V14.01,2013-08-05 03:37:00,
2013-08-04 23:38:00,57.5,50.7,29.75,NNW,330,0.0,0.0,78,0.00,,CLR,0.00,0.00,VWS V14.01,2013-08-05 03:38:00,
2013-08-04 23:39:00,57.5,50.7,29.75,NNW,330,0.0,0.0,78,0.00,,CLR,0.00,0.00,VWS V14.01,2013-08-05 03:39:00,
2013-08-04 23:42:00,57.3,50.5,29.75,NNW,330,0.0,0.0,78,0.00,,CLR,0.00,0.00,VWS V14.01,2013-08-05 03:42:00,
2013-08-04 23:43:00,57.3,50.5,29.75,NNW,330,0.0,0.0,78,0.00,,CLR,0.00,0.00,VWS V14.01,2013-08-05 03:43:00,
2013-08-04 23:44:00,57.3,50.5,29.75,NNW,330,0.0,0.0,78,0.00,,CLR,0.00,0.00,VWS V14.01,2013-08-05 03:44:00,
2013-08-04 23:45:00,57.3,50.5,29.75,NNW,330,0.0,0.0,78,0.00,,CLR,0.00,0.00,VWS V14.01,2013-08-05 03:45:00,
2013-08-04 23:47:00,57.3,50.8,29.75,NNW,330,0.0,0.0,79,0.00,,CLR,0.00,0.00,VWS V14.01,2013-08-05 03:47:00,
2013-08-04 23:48:00,57.3,50.8,29.75,NNW,330,0.0,0.0,79,0.00,,CLR,0.00,0.00,VWS V14.01,2013-08-05 03:48:00,
2013-08-04 23:49:00,57.2,50.8,29.75,NNW,330,0.0,0.0,79,0.00,,CLR,0.00,0.00,VWS V14.01,2013-08-05 03:49:00,
2013-08-04 23:51:00,57.2,50.8,29.75,NNW,330,0.0,0.0,79,0.00,,CLR,0.00,0.00,VWS V14.01,2013-08-05 03:51:00,
2013-08-04 23:52:00,57.2,50.8,29.75,WNW,301,0.0,0.0,79,0.00,,CLR,0.00,0.00,VWS V14.01,2013-08-05 03:52:00,
2013-08-04 23:53:00,57.2,50.8,29.75,NW,312,0.0,3.0,79,0.00,,CLR,0.00,0.00,VWS V14.01,2013-08-05 03:53:00,
2013-08-04 23:54:00,57.2,50.8,29.75,NW,312,0.0,3.0,79,0.00,,CLR,0.00,0.00,VWS V14.01,2013-08-05 03:54:00,
2013-08-04 23:55:00,57.2,50.8,29.75,NNW,346,0.0,3.0,79,0.00,,CLR,0.00,0.00,VWS V14.01,2013-08-05 03:55:00,
2013-08-04 23:57:00,57.2,51.1,29.75,NNW,328,0.0,3.0,80,0.00,,CLR,0.00,0.00,VWS V14.01,2013-08-05 03:57:00,
2013-08-04 23:58:00,57.0,50.9,29.75,NNW,329,0.0,3.0,80,0.00,,CLR,0.00,0.00,VWS V14.01,2013-08-05 03:58:00,
2013-08-04 23:59:00,57.0,50.9,29.75,NNW,329,0.0,3.0,80,0.00,,CLR,0.00,0.00,VWS V14.01,2013-08-05 03:59:00,